| time (UTC) | temp F | wind direction | speed knots | gust knots | rain 1hr in | rain 24hr in | rain mn in | humidity % | barometer mb |
| 20260506082451 | 58 | 211 | 2.6 | 7.0 | 0.00 | 0.00 | 0.00 | 83 | 1018.3 |
| 20260506082351 | 58 | 245 | 2.6 | 7.0 | 0.00 | 0.00 | 0.00 | 83 | 1018.3 |
| 20260506082251 | 58 | 219 | 2.6 | 7.0 | 0.00 | 0.00 | 0.00 | 83 | 1018.2 |
| 20260506082209 | 58 | 250 | 2.6 | 7.0 | 0.00 | 0.00 | 0.00 | 83 | 1018.3 |
| 20260506082151 | 58 | 243 | 2.6 | 7.0 | 0.00 | 0.00 | 0.00 | 83 | 1018.3 |
| 20260506082051 | 58 | 233 | 2.6 | 7.0 | 0.00 | 0.00 | 0.00 | 83 | 1018.3 |
| 20260506081845 | 58 | 250 | 1.7 | 5.2 | 0.00 | 0.00 | 0.00 | 83 | 1018.3 |
| 20260506081746 | 58 | 221 | 1.7 | 5.2 | 0.00 | 0.00 | 0.00 | 83 | 1018.3 |
| 20260506081710 | 58 | 248 | 1.7 | 5.2 | 0.00 | 0.00 | 0.00 | 83 | 1018.2 |
| 20260506081645 | 58 | 238 | 1.7 | 5.2 | 0.00 | 0.00 | 0.00 | 83 | 1018.3 |
| 20260506081545 | 58 | 238 | 1.7 | 5.2 | 0.00 | 0.00 | 0.00 | 83 | 1018.3 |
| 20260506081445 | 58 | 236 | 1.7 | 5.2 | 0.00 | 0.00 | 0.00 | 83 | 1018.3 |
| 20260506081346 | 58 | 242 | 1.7 | 5.2 | 0.00 | 0.00 | 0.00 | 83 | 1018.2 |
| 20260506081245 | 58 | 242 | 1.7 | 5.2 | 0.00 | 0.00 | 0.00 | 83 | 1018.2 |
| 20260506081209 | 58 | 211 | 1.7 | 5.2 | 0.00 | 0.00 | 0.00 | 83 | 1018.2 |
| 20260506081143 | 58 | 211 | 1.7 | 5.2 | 0.00 | 0.00 | 0.00 | 83 | 1018.2 |
| 20260506081041 | 58 | 219 | 1.7 | 5.2 | 0.00 | 0.00 | 0.00 | 83 | 1018.2 |
| 20260506080942 | 58 | 212 | 1.7 | 5.2 | 0.00 | 0.00 | 0.00 | 83 | 1018.2 |
| 20260506080841 | 58 | 233 | 1.7 | 5.2 | 0.00 | 0.00 | 0.00 | 83 | 1018.2 |
| 20260506080741 | 58 | 248 | 1.7 | 5.2 | 0.00 | 0.00 | 0.00 | 83 | 1018.2 |
| 20260506080722 | 58 | 235 | 1.7 | 5.2 | 0.00 | 0.00 | 0.00 | 83 | 1018.2 |
| 20260506080641 | 58 | 289 | 1.7 | 5.2 | 0.00 | 0.00 | 0.00 | 83 | 1018.2 |
| 20260506080541 | 58 | 240 | 1.7 | 5.2 | 0.00 | 0.00 | 0.00 | 83 | 1018.2 |
| 20260506080441 | 58 | 225 | 1.7 | 5.2 | 0.00 | 0.00 | 0.00 | 83 | 1018.2 |
| 20260506080339 | 58 | 174 | 1.7 | 5.2 | 0.00 | 0.00 | 0.00 | 83 | 1018.2 |
| 20260506080240 | 58 | 211 | 1.7 | 5.2 | 0.00 | 0.00 | 0.00 | 83 | 1018.2 |
| 20260506080204 | 58 | 168 | 1.7 | 5.2 | 0.00 | 0.00 | 0.00 | 83 | 1018.2 |
| 20260506080140 | 58 | 141 | 1.7 | 5.2 | 0.00 | 0.00 | 0.00 | 83 | 1018.2 |
| 20260506073523 | 58 | 224 | 1.7 | 7.0 | 0.00 | 0.02 | 0.00 | 83 | 1018.0 |
| 20260506073423 | 58 | 246 | 0.9 | 7.0 | 0.00 | 0.02 | 0.00 | 83 | 1018.0 |
| 20260506073323 | 58 | 215 | 0.9 | 5.2 | 0.00 | 0.02 | 0.00 | 83 | 1018.0 |
| 20260506073203 | 58 | 233 | 1.7 | 5.2 | 0.00 | 0.02 | 0.00 | 83 | 1018.0 |
| 20260506073124 | 58 | 233 | 0.9 | 5.2 | 0.00 | 0.02 | 0.00 | 83 | 1017.9 |
| 20260506073023 | 58 | 221 | 1.7 | 5.2 | 0.00 | 0.02 | 0.00 | 83 | 1018.0 |
| 20260506072923 | 58 | 242 | 1.7 | 5.2 | 0.00 | 0.02 | 0.00 | 83 | 1018.0 |
| 20260506072823 | 58 | 239 | 1.7 | 5.2 | 0.00 | 0.02 | 0.00 | 83 | 1017.9 |
| 20260506072722 | 58 | 219 | 1.7 | 5.2 | 0.00 | 0.02 | 0.00 | 83 | 1018.0 |
| 20260506072703 | 58 | 207 | 1.7 | 5.2 | 0.00 | 0.02 | 0.00 | 83 | 1018.0 |
| 20260506072623 | 58 | 236 | 1.7 | 5.2 | 0.00 | 0.02 | 0.00 | 83 | 1018.0 |
| 20260506072523 | 58 | 236 | 1.7 | 5.2 | 0.00 | 0.02 | 0.00 | 83 | 1017.9 |
| 20260506072423 | 58 | 250 | 1.7 | 5.2 | 0.00 | 0.02 | 0.00 | 83 | 1017.9 |
| 20260506072323 | 58 | 233 | 1.7 | 5.2 | 0.00 | 0.02 | 0.00 | 83 | 1017.9 |
| 20260506072227 | 58 | 233 | 1.7 | 5.2 | 0.00 | 0.02 | 0.00 | 83 | 1017.9 |
| 20260506072216 | 58 | 235 | 1.7 | 5.2 | 0.00 | 0.02 | 0.00 | 83 | 1017.9 |
| 20260506072124 | 58 | 233 | 1.7 | 5.2 | 0.00 | 0.02 | 0.00 | 83 | 1017.9 |
| 20260506072023 | 58 | 188 | 1.7 | 5.2 | 0.00 | 0.03 | 0.00 | 83 | 1017.9 |
| 20260506071932 | 58 | 221 | 0.9 | 5.2 | 0.00 | 0.03 | 0.00 | 83 | 1017.9 |
| 20260506071923 | 58 | 232 | 1.7 | 5.2 | 0.00 | 0.03 | 0.00 | 83 | 1017.9 |
| 20260506071823 | 58 | 243 | 1.7 | 5.2 | 0.00 | 0.03 | 0.00 | 83 | 1017.8 |
| 20260506071814 | 58 | 224 | 0.9 | 5.2 | 0.00 | 0.03 | 0.00 | 83 | 1017.9 |
| 20260506071622 | 58 | 221 | 0.9 | 5.2 | 0.00 | 0.03 | 0.00 | 83 | 1017.9 |
| 20260506071520 | 58 | 240 | 0.9 | 5.2 | 0.00 | 0.03 | 0.00 | 83 | 1017.8 |
| 20260506071417 | 58 | 238 | 0.9 | 5.2 | 0.00 | 0.03 | 0.00 | 83 | 1017.9 |
| 20260506071315 | 58 | 214 | 0.9 | 5.2 | 0.00 | 0.03 | 0.00 | 83 | 1017.9 |
| 20260506071215 | 58 | 235 | 0.9 | 5.2 | 0.00 | 0.03 | 0.00 | 83 | 1017.9 |
| 20260506071201 | 58 | 221 | 0.9 | 5.2 | 0.00 | 0.03 | 0.00 | 83 | 1017.9 |
| 20260506071115 | 58 | 239 | 0.9 | 5.2 | 0.00 | 0.03 | 0.00 | 83 | 1017.9 |
| 20260506071015 | 58 | 231 | 0.9 | 5.2 | 0.00 | 0.03 | 0.00 | 83 | 1017.9 |
| 20260506070915 | 58 | 240 | 0.9 | 5.2 | 0.00 | 0.03 | 0.00 | 83 | 1017.9 |
| 20260506070813 | 58 | 240 | 0.9 | 5.2 | 0.00 | 0.03 | 0.00 | 83 | 1017.9 |
| 20260506070711 | 58 | 240 | 0.9 | 5.2 | 0.00 | 0.03 | 0.00 | 83 | 1017.8 |
| 20260506070701 | 58 | 240 | 0.9 | 5.2 | 0.00 | 0.03 | 0.00 | 83 | 1017.8 |
| 20260506070611 | 58 | 240 | 0.9 | 5.2 | 0.00 | 0.03 | 0.00 | 83 | 1017.8 |
| 20260506070510 | 58 | 240 | 0.9 | 5.2 | 0.00 | 0.03 | 0.00 | 83 | 1017.8 |
| 20260506070409 | 58 | 240 | 0.9 | 5.2 | 0.00 | 0.03 | 0.00 | 83 | 1017.8 |
| 20260506070308 | 58 | 236 | 0.9 | 5.2 | 0.00 | 0.04 | 0.00 | 83 | 1017.7 |
| 20260506070213 | 58 | 243 | 0.9 | 2.6 | 0.00 | 0.04 | 0.00 | 83 | 1017.7 |
| 20260506070203 | 58 | 246 | 0.9 | 2.6 | 0.00 | 0.04 | 0.00 | 83 | 1017.7 |
| 20260506070107 | 58 | 245 | 0.9 | 2.6 | 0.00 | 0.04 | 0.00 | 83 | 1017.7 |
| 20260506062428 | 58 | 253 | 0.9 | 6.1 | 0.00 | 0.07 | 0.04 | 83 | 1017.3 |
| 20260506062327 | 58 | 221 | 0.9 | 6.1 | 0.00 | 0.08 | 0.04 | 83 | 1017.3 |
| 20260506062229 | 58 | 266 | 0.9 | 6.1 | 0.00 | 0.08 | 0.04 | 83 | 1017.3 |
| 20260506062127 | 58 | 266 | 0.9 | 6.1 | 0.00 | 0.08 | 0.04 | 83 | 1017.3 |
| 20260506062021 | 58 | 227 | 0.9 | 6.1 | 0.00 | 0.08 | 0.04 | 83 | 1017.3 |
| 20260506061920 | 58 | 264 | 0.9 | 6.1 | 0.00 | 0.08 | 0.04 | 83 | 1017.3 |
| 20260506061819 | 58 | 211 | 0.9 | 5.2 | 0.00 | 0.08 | 0.04 | 84 | 1017.2 |
| 20260506061720 | 58 | 232 | 0.9 | 4.3 | 0.00 | 0.08 | 0.04 | 84 | 1017.3 |
| 20260506061621 | 58 | 232 | 0.9 | 5.2 | 0.00 | 0.08 | 0.04 | 84 | 1017.3 |
| 20260506061515 | 58 | 242 | 0.9 | 5.2 | 0.00 | 0.08 | 0.04 | 84 | 1017.2 |
| 20260506061415 | 58 | 242 | 0.9 | 5.2 | 0.00 | 0.08 | 0.04 | 84 | 1017.2 |
| 20260506061334 | 58 | 242 | 0.9 | 5.2 | 0.00 | 0.08 | 0.04 | 84 | 1017.1 |
| 20260506061315 | 58 | 242 | 0.9 | 5.2 | 0.00 | 0.08 | 0.04 | 84 | 1017.2 |
| 20260506061230 | 58 | 242 | 0.9 | 5.2 | 0.00 | 0.08 | 0.04 | 84 | 1017.2 |
| 20260506061220 | 58 | 242 | 0.9 | 5.2 | 0.00 | 0.08 | 0.04 | 84 | 1017.1 |
| 20260506061014 | 58 | 241 | 0.9 | 5.2 | 0.00 | 0.09 | 0.04 | 84 | 1017.1 |
| 20260506060912 | 58 | 243 | 0.9 | 5.2 | 0.00 | 0.09 | 0.04 | 84 | 1017.1 |
| 20260506060828 | 58 | 276 | 0.9 | 3.5 | 0.00 | 0.09 | 0.04 | 84 | 1017.2 |
| 20260506060811 | 58 | 242 | 0.9 | 5.2 | 0.00 | 0.09 | 0.04 | 84 | 1017.1 |
| 20260506060724 | 58 | 214 | 0.9 | 5.2 | 0.00 | 0.09 | 0.04 | 84 | 1017.1 |
| 20260506060714 | 58 | 276 | 0.9 | 3.5 | 0.00 | 0.09 | 0.04 | 84 | 1017.2 |
| 20260506060507 | 58 | 245 | 0.9 | 3.5 | 0.00 | 0.09 | 0.04 | 84 | 1017.2 |
| 20260506060405 | 58 | 225 | 0.9 | 3.5 | 0.00 | 0.09 | 0.04 | 84 | 1017.2 |
| 20260506060304 | 58 | 225 | 0.9 | 3.5 | 0.00 | 0.09 | 0.04 | 84 | 1017.2 |
| 20260506060204 | 58 | 219 | 0.9 | 3.5 | 0.00 | 0.10 | 0.04 | 84 | 1017.2 |
| 20260506060111 | 58 | 219 | 0.9 | 3.5 | 0.00 | 0.10 | 0.04 | 84 | 1017.2 |
| 20260506051402 | 59 | 233 | 0.9 | 4.3 | 0.00 | 0.13 | 0.04 | 83 | 1016.8 |
| 20260506051302 | 59 | 233 | 0.9 | 4.3 | 0.00 | 0.13 | 0.04 | 83 | 1016.8 |
| 20260506051201 | 59 | 236 | 0.9 | 4.3 | 0.00 | 0.13 | 0.04 | 83 | 1016.8 |
| 20260506051102 | 59 | 248 | 0.9 | 4.3 | 0.00 | 0.13 | 0.04 | 83 | 1016.8 |
| 20260506051004 | 59 | 224 | 0.9 | 4.3 | 0.00 | 0.13 | 0.04 | 83 | 1016.8 |
| 20260506050901 | 59 | 226 | 0.9 | 4.3 | 0.00 | 0.13 | 0.04 | 83 | 1016.7 |
| 20260506050759 | 59 | 236 | 0.9 | 4.3 | 0.00 | 0.13 | 0.04 | 83 | 1016.7 |
| 20260506050700 | 59 | 148 | 0.9 | 4.3 | 0.00 | 0.13 | 0.04 | 83 | 1016.7 |
| 20260506050558 | 59 | 148 | 1.7 | 4.3 | 0.00 | 0.13 | 0.04 | 82 | 1016.7 |
| 20260506050457 | 59 | 240 | 0.9 | 4.3 | 0.00 | 0.13 | 0.04 | 82 | 1016.7 |
| 20260506050350 | 59 | 240 | 0.9 | 4.3 | 0.00 | 0.13 | 0.04 | 82 | 1016.6 |
| 20260506050250 | 59 | 311 | 0.9 | 4.3 | 0.00 | 0.13 | 0.04 | 82 | 1016.7 |
| 20260506050149 | 59 | 242 | 0.9 | 4.3 | 0.00 | 0.13 | 0.04 | 82 | 1016.6 |
| 20260506045040 | 60 | 235 | 0.9 | 3.5 | 0.00 | 0.14 | 0.04 | 81 | 1016.6 |
| 20260506044940 | 60 | 240 | 0.9 | 3.5 | 0.00 | 0.14 | 0.04 | 81 | 1016.6 |
| 20260506044836 | 60 | 240 | 0.9 | 3.5 | 0.00 | 0.14 | 0.04 | 81 | 1016.5 |
| 20260506044736 | 60 | 239 | 0.9 | 4.3 | 0.00 | 0.14 | 0.04 | 81 | 1016.5 |
| 20260506044634 | 60 | 141 | 1.7 | 7.0 | 0.00 | 0.14 | 0.04 | 81 | 1016.5 |
| 20260506044533 | 60 | 232 | 1.7 | 7.0 | 0.00 | 0.14 | 0.04 | 81 | 1016.5 |
| 20260506044433 | 60 | 262 | 1.7 | 7.0 | 0.00 | 0.14 | 0.04 | 81 | 1016.4 |
| 20260506044327 | 60 | 253 | 1.7 | 7.0 | 0.00 | 0.14 | 0.04 | 80 | 1016.4 |
| 20260506044228 | 60 | 215 | 2.6 | 7.8 | 0.00 | 0.14 | 0.04 | 80 | 1016.4 |
| 20260506044127 | 60 | 216 | 2.6 | 7.8 | 0.00 | 0.14 | 0.04 | 80 | 1016.4 |
| 20260506044028 | 60 | 214 | 2.6 | 7.8 | 0.00 | 0.15 | 0.04 | 80 | 1016.4 |
| 20260506043928 | 60 | 248 | 2.6 | 7.8 | 0.00 | 0.15 | 0.04 | 80 | 1016.4 |
| 20260506043819 | 60 | 239 | 3.5 | 7.8 | 0.00 | 0.15 | 0.04 | 80 | 1016.3 |
| 20260506043719 | 60 | 256 | 3.5 | 7.8 | 0.00 | 0.15 | 0.04 | 80 | 1016.3 |
| 20260506043620 | 60 | 238 | 3.5 | 7.8 | 0.00 | 0.15 | 0.04 | 80 | 1016.3 |
| 20260506043520 | 60 | 248 | 3.5 | 7.8 | 0.00 | 0.15 | 0.04 | 80 | 1016.3 |
| 20260506043421 | 60 | 266 | 2.6 | 7.8 | 0.00 | 0.15 | 0.04 | 80 | 1016.2 |
| 20260506043313 | 60 | 250 | 2.6 | 7.8 | 0.00 | 0.15 | 0.04 | 80 | 1016.2 |
| 20260506043214 | 60 | 212 | 2.6 | 7.0 | 0.00 | 0.15 | 0.04 | 80 | 1016.2 |
| 20260506043114 | 60 | 231 | 2.6 | 7.0 | 0.00 | 0.15 | 0.04 | 80 | 1016.2 |
| 20260506043013 | 60 | 245 | 2.6 | 7.0 | 0.00 | 0.15 | 0.04 | 80 | 1016.1 |
| 20260506042916 | 60 | 231 | 2.6 | 7.0 | 0.00 | 0.15 | 0.04 | 79 | 1016.1 |
| 20260506042808 | 60 | 222 | 2.6 | 7.0 | 0.00 | 0.15 | 0.04 | 79 | 1016.0 |
| 20260506042707 | 60 | 245 | 2.6 | 7.0 | 0.00 | 0.16 | 0.04 | 79 | 1016.1 |
| 20260506042637 | 61 | 250 | 2.6 | 7.8 | 0.00 | 0.16 | 0.04 | 79 | 1016.1 |
| 20260506042607 | 60 | 226 | 2.6 | 7.8 | 0.00 | 0.16 | 0.04 | 79 | 1016.0 |
| 20260506042527 | 61 | 204 | 2.6 | 7.8 | 0.00 | 0.16 | 0.04 | 79 | 1016.1 |
| 20260506042513 | 61 | 250 | 2.6 | 7.8 | 0.00 | 0.16 | 0.04 | 79 | 1016.1 |
| 20260506042305 | 61 | 232 | 2.6 | 7.8 | 0.00 | 0.16 | 0.04 | 79 | 1016.1 |
| 20260506042201 | 61 | 233 | 1.7 | 7.8 | 0.00 | 0.16 | 0.04 | 79 | 1016.1 |
| 20260506042102 | 61 | 233 | 2.6 | 9.6 | 0.00 | 0.16 | 0.04 | 79 | 1016.1 |
| 20260506042001 | 61 | 281 | 2.6 | 9.6 | 0.00 | 0.16 | 0.04 | 79 | 1016.1 |
| 20260506041906 | 61 | 236 | 2.6 | 9.6 | 0.00 | 0.16 | 0.04 | 79 | 1016.1 |
| 20260506041759 | 61 | 250 | 2.6 | 9.6 | 0.00 | 0.16 | 0.04 | 79 | 1016.1 |
| 20260506041700 | 61 | 229 | 1.7 | 9.6 | 0.00 | 0.16 | 0.04 | 79 | 1016.1 |
| 20260506041600 | 61 | 224 | 1.7 | 9.6 | 0.00 | 0.16 | 0.04 | 79 | 1016.1 |
| 20260506041458 | 61 | 226 | 1.7 | 9.6 | 0.00 | 0.17 | 0.04 | 79 | 1016.1 |
| 20260506041357 | 61 | 226 | 1.7 | 9.6 | 0.00 | 0.17 | 0.04 | 79 | 1016.1 |
| 20260506041252 | 61 | 246 | 1.7 | 9.6 | 0.00 | 0.17 | 0.04 | 79 | 1016.1 |
| 20260506041151 | 61 | 214 | 1.7 | 9.6 | 0.00 | 0.17 | 0.04 | 79 | 1016.1 |
| 20260506041052 | 61 | 236 | 1.7 | 6.1 | 0.00 | 0.17 | 0.04 | 79 | 1016.1 |
| 20260506040952 | 61 | 239 | 1.7 | 6.1 | 0.00 | 0.17 | 0.04 | 79 | 1016.1 |
| 20260506040851 | 61 | 231 | 1.7 | 6.1 | 0.00 | 0.17 | 0.04 | 79 | 1016.1 |
| 20260506040745 | 61 | 208 | 1.7 | 6.1 | 0.00 | 0.17 | 0.04 | 79 | 1016.1 |
| 20260506040645 | 61 | 229 | 1.7 | 6.1 | 0.00 | 0.17 | 0.04 | 79 | 1016.1 |
| 20260506040604 | 61 | 239 | 1.7 | 7.0 | 0.00 | 0.18 | 0.04 | 78 | 1016.1 |
| 20260506040545 | 61 | 185 | 1.7 | 6.1 | 0.00 | 0.17 | 0.04 | 79 | 1016.1 |
| 20260506040504 | 61 | 233 | 1.7 | 6.1 | 0.00 | 0.17 | 0.04 | 79 | 1016.1 |
| 20260506040450 | 61 | 239 | 1.7 | 7.0 | 0.00 | 0.18 | 0.04 | 78 | 1016.1 |
| 20260506040240 | 61 | 240 | 1.7 | 7.0 | 0.00 | 0.18 | 0.04 | 78 | 1016.1 |
| 20260506040140 | 61 | 251 | 1.7 | 7.0 | 0.00 | 0.18 | 0.04 | 78 | 1016.1 |
| 20260506040039 | 61 | 253 | 1.7 | 7.0 | 0.00 | 0.18 | 0.04 | 78 | 1016.1 |
| 20260506035939 | 62 | 245 | 1.7 | 7.0 | 0.00 | 0.18 | 0.04 | 78 | 1016.1 |
| 20260506035840 | 62 | 181 | 0.9 | 7.0 | 0.00 | 0.18 | 0.04 | 78 | 1016.1 |
| 20260506035733 | 62 | 219 | 0.9 | 7.0 | 0.00 | 0.18 | 0.04 | 78 | 1016.1 |
| 20260506035632 | 62 | 233 | 0.9 | 7.0 | 0.00 | 0.18 | 0.04 | 79 | 1016.1 |
| 20260506035531 | 62 | 233 | 0.9 | 7.0 | 0.00 | 0.18 | 0.04 | 78 | 1016.1 |
| 20260506035431 | 62 | 249 | 0.9 | 7.0 | 0.00 | 0.18 | 0.04 | 79 | 1016.0 |
| 20260506035333 | 62 | 235 | 0.9 | 5.2 | 0.00 | 0.18 | 0.04 | 78 | 1016.0 |
| 20260506035232 | 62 | 233 | 0.9 | 5.2 | 0.00 | 0.18 | 0.04 | 78 | 1016.0 |
| 20260506035129 | 62 | 240 | 0.9 | 5.2 | 0.00 | 0.18 | 0.04 | 78 | 1016.0 |
| 20260506035028 | 62 | 253 | 0.9 | 4.3 | 0.00 | 0.19 | 0.04 | 78 | 1016.0 |
| 20260506034927 | 62 | 235 | 0.9 | 3.5 | 0.00 | 0.19 | 0.04 | 79 | 1016.0 |
| 20260506034827 | 62 | 240 | 0.9 | 3.5 | 0.00 | 0.19 | 0.04 | 79 | 1016.0 |
| 20260506034726 | 62 | 245 | 0.9 | 3.5 | 0.00 | 0.19 | 0.04 | 79 | 1016.0 |
| 20260506034623 | 62 | 243 | 0.9 | 5.2 | 0.00 | 0.20 | 0.04 | 79 | 1015.9 |
| 20260506034523 | 62 | 239 | 0.9 | 5.2 | 0.00 | 0.20 | 0.04 | 78 | 1015.9 |
| 20260506034421 | 62 | 230 | 0.9 | 5.2 | 0.00 | 0.20 | 0.04 | 78 | 1015.9 |
| 20260506034322 | 62 | 238 | 0.9 | 5.2 | 0.00 | 0.20 | 0.04 | 78 | 1015.9 |
| 20260506034218 | 62 | 211 | 0.9 | 5.2 | 0.00 | 0.20 | 0.04 | 79 | 1015.9 |
| 20260506034118 | 62 | 243 | 0.9 | 7.8 | 0.00 | 0.20 | 0.04 | 78 | 1015.8 |
| 20260506034018 | 62 | 217 | 0.9 | 7.8 | 0.00 | 0.21 | 0.04 | 79 | 1015.8 |
| 20260506033916 | 62 | 236 | 0.9 | 7.8 | 0.00 | 0.21 | 0.04 | 79 | 1015.8 |
| 20260506033815 | 62 | 231 | 0.9 | 7.8 | 0.00 | 0.21 | 0.04 | 79 | 1015.8 |
| 20260506033710 | 62 | 260 | 0.9 | 7.8 | 0.00 | 0.22 | 0.04 | 79 | 1015.8 |
| 20260506033609 | 62 | 228 | 0.9 | 7.8 | 0.00 | 0.22 | 0.04 | 79 | 1015.8 |
| 20260506033509 | 62 | 233 | 0.9 | 7.8 | 0.00 | 0.22 | 0.04 | 79 | 1015.7 |
| 20260506033410 | 62 | 262 | 1.7 | 7.8 | 0.00 | 0.23 | 0.04 | 79 | 1015.7 |
| 20260506033310 | 62 | 262 | 1.7 | 7.8 | 0.00 | 0.23 | 0.04 | 79 | 1015.7 |
| 20260506033202 | 62 | 243 | 1.7 | 7.8 | 0.00 | 0.23 | 0.04 | 79 | 1015.6 |
| 20260506033101 | 62 | 248 | 1.7 | 5.2 | 0.00 | 0.23 | 0.04 | 79 | 1015.6 |
| 20260506033001 | 62 | 231 | 1.7 | 5.2 | 0.00 | 0.24 | 0.04 | 79 | 1015.6 |
| 20260506032902 | 62 | 231 | 0.9 | 5.2 | 0.00 | 0.24 | 0.04 | 79 | 1015.6 |
| 20260506032802 | 62 | 231 | 1.7 | 5.2 | 0.00 | 0.24 | 0.04 | 79 | 1015.5 |
| 20260506032659 | 62 | 232 | 1.7 | 5.2 | 0.00 | 0.24 | 0.04 | 79 | 1015.5 |
| 20260506032559 | 62 | 231 | 1.7 | 5.2 | 0.00 | 0.24 | 0.04 | 79 | 1015.5 |
| 20260506032500 | 62 | 232 | 0.9 | 5.2 | 0.00 | 0.24 | 0.04 | 79 | 1015.5 |
| 20260506032357 | 62 | 222 | 0.9 | 3.5 | 0.00 | 0.24 | 0.04 | 79 | 1015.5 |
| 20260506032258 | 62 | 212 | 0.9 | 3.5 | 0.00 | 0.24 | 0.04 | 79 | 1015.5 |
| 20260506032153 | 62 | 239 | 0.9 | 3.5 | 0.00 | 0.24 | 0.04 | 79 | 1015.4 |
| 20260506032054 | 62 | 235 | 0.9 | 3.5 | 0.00 | 0.25 | 0.04 | 79 | 1015.4 |
| 20260506031954 | 62 | 235 | 0.9 | 3.5 | 0.00 | 0.25 | 0.04 | 79 | 1015.4 |
| 20260506031852 | 62 | 235 | 1.7 | 3.5 | 0.00 | 0.25 | 0.04 | 79 | 1015.4 |
| 20260506031750 | 62 | 226 | 0.9 | 3.5 | 0.00 | 0.25 | 0.04 | 79 | 1015.4 |
| 20260506031646 | 62 | 212 | 0.9 | 3.5 | 0.00 | 0.25 | 0.04 | 79 | 1015.3 |
| 20260506031545 | 62 | 224 | 0.9 | 3.5 | 0.00 | 0.25 | 0.04 | 79 | 1015.3 |
| 20260506031445 | 62 | 203 | 0.9 | 3.5 | 0.00 | 0.25 | 0.04 | 79 | 1015.4 |
| 20260506031345 | 62 | 229 | 0.9 | 2.6 | 0.00 | 0.25 | 0.04 | 79 | 1015.3 |
| 20260506031244 | 62 | 203 | 0.9 | 2.6 | 0.00 | 0.25 | 0.04 | 79 | 1015.3 |
| 20260506031138 | 62 | 214 | 0.9 | 2.6 | 0.00 | 0.25 | 0.04 | 79 | 1015.3 |
| 20260506031037 | 62 | 226 | 0.9 | 2.6 | 0.00 | 0.25 | 0.04 | 79 | 1015.3 |
| 20260506030937 | 62 | 248 | 0.9 | 2.6 | 0.00 | 0.25 | 0.04 | 79 | 1015.3 |
| 20260506030837 | 62 | 210 | 0.9 | 2.6 | 0.00 | 0.25 | 0.04 | 79 | 1015.4 |
| 20260506030740 | 62 | 210 | 0.9 | 2.6 | 0.00 | 0.25 | 0.04 | 79 | 1015.4 |
| 20260506030638 | 62 | 210 | 0.9 | 2.6 | 0.00 | 0.25 | 0.04 | 79 | 1015.4 |
| 20260506030535 | 62 | 210 | 0.9 | 2.6 | 0.00 | 0.25 | 0.04 | 79 | 1015.4 |
| 20260506030435 | 62 | 210 | 0.9 | 2.6 | 0.00 | 0.25 | 0.04 | 79 | 1015.3 |
| 20260506030334 | 62 | 211 | 0.9 | 2.6 | 0.00 | 0.25 | 0.04 | 79 | 1015.3 |
| 20260506030235 | 62 | 218 | 0.9 | 2.6 | 0.00 | 0.25 | 0.04 | 79 | 1015.3 |
| 20260506030127 | 62 | 238 | 0.9 | 2.6 | 0.00 | 0.25 | 0.04 | 79 | 1015.3 |
| 20260506030025 | 62 | 228 | 0.9 | 2.6 | 0.00 | 0.25 | 0.04 | 79 | 1015.3 |
| 20260506025926 | 62 | 228 | 0.9 | 2.6 | 0.00 | 0.25 | 0.04 | 79 | 1015.3 |
| 20260506025826 | 62 | 228 | 0.9 | 2.6 | 0.00 | 0.25 | 0.04 | 78 | 1015.3 |
| 20260506025732 | 62 | 229 | 0.9 | 2.6 | 0.00 | 0.25 | 0.04 | 78 | 1015.2 |
| 20260506025625 | 63 | 228 | 0.0 | 2.6 | 0.00 | 0.25 | 0.04 | 78 | 1015.2 |
| 20260506025524 | 63 | 214 | 0.0 | 2.6 | 0.00 | 0.25 | 0.04 | 78 | 1015.3 |
| 20260506025423 | 63 | 200 | 0.0 | 2.6 | 0.00 | 0.25 | 0.04 | 78 | 1015.2 |
| 20260506025322 | 63 | 200 | 0.9 | 2.6 | 0.00 | 0.25 | 0.04 | 78 | 1015.2 |
| 20260506025223 | 63 | 204 | 0.9 | 2.6 | 0.00 | 0.25 | 0.04 | 78 | 1015.2 |
| 20260506025119 | 63 | 204 | 0.9 | 2.6 | 0.00 | 0.25 | 0.04 | 78 | 1015.2 |
| 20260506025017 | 63 | 204 | 0.9 | 2.6 | 0.00 | 0.25 | 0.04 | 78 | 1015.1 |
| 20260506024918 | 63 | 212 | 0.9 | 3.5 | 0.00 | 0.25 | 0.04 | 78 | 1015.2 |
| 20260506024815 | 63 | 177 | 0.9 | 3.5 | 0.00 | 0.25 | 0.04 | 77 | 1015.1 |
| 20260506024716 | 63 | 177 | 0.9 | 3.5 | 0.00 | 0.25 | 0.04 | 77 | 1015.1 |
| 20260506024611 | 63 | 177 | 0.9 | 3.5 | 0.00 | 0.25 | 0.04 | 77 | 1015.1 |
| 20260506024512 | 63 | 207 | 1.7 | 3.5 | 0.00 | 0.25 | 0.04 | 77 | 1015.0 |
| 20260506024412 | 63 | 214 | 1.7 | 4.3 | 0.00 | 0.25 | 0.04 | 77 | 1015.0 |
| 20260506024310 | 63 | 214 | 1.7 | 4.3 | 0.00 | 0.25 | 0.04 | 77 | 1014.9 |
| 20260506024209 | 63 | 214 | 1.7 | 4.3 | 0.00 | 0.25 | 0.04 | 77 | 1015.0 |
| 20260506024108 | 63 | 232 | 1.7 | 4.3 | 0.00 | 0.25 | 0.04 | 77 | 1014.9 |
| 20260506024005 | 63 | 231 | 1.7 | 4.3 | 0.00 | 0.25 | 0.04 | 76 | 1014.9 |
| 20260506023905 | 63 | 208 | 1.7 | 4.3 | 0.00 | 0.25 | 0.04 | 77 | 1014.9 |
| 20260506023804 | 63 | 225 | 1.7 | 4.3 | 0.00 | 0.25 | 0.04 | 76 | 1014.9 |
| 20260506023704 | 63 | 233 | 1.7 | 4.3 | 0.00 | 0.25 | 0.04 | 76 | 1014.9 |
| 20260506023557 | 63 | 204 | 1.7 | 4.3 | 0.00 | 0.25 | 0.04 | 76 | 1014.8 |
| 20260506023456 | 63 | 204 | 1.7 | 4.3 | 0.00 | 0.25 | 0.04 | 76 | 1014.9 |
| 20260506023417 | 63 | 245 | 1.7 | 5.2 | 0.00 | 0.25 | 0.04 | 76 | 1014.7 |
| 20260506023356 | 63 | 228 | 1.7 | 4.3 | 0.00 | 0.25 | 0.04 | 76 | 1014.8 |
| 20260506023315 | 63 | 231 | 1.7 | 5.2 | 0.00 | 0.25 | 0.04 | 76 | 1014.7 |
| 20260506023304 | 63 | 245 | 1.7 | 5.2 | 0.00 | 0.25 | 0.04 | 76 | 1014.7 |
| 20260506023050 | 63 | 170 | 2.6 | 5.2 | 0.00 | 0.25 | 0.04 | 76 | 1014.7 |
| 20260506022950 | 63 | 207 | 2.6 | 5.2 | 0.00 | 0.25 | 0.04 | 76 | 1014.7 |
| 20260506022849 | 63 | 203 | 2.6 | 5.2 | 0.00 | 0.25 | 0.04 | 76 | 1014.7 |
| 20260506022750 | 63 | 233 | 2.6 | 5.2 | 0.00 | 0.25 | 0.04 | 76 | 1014.8 |
| 20260506022651 | 63 | 231 | 1.7 | 5.2 | 0.00 | 0.25 | 0.04 | 76 | 1014.8 |
| 20260506022544 | 64 | 214 | 1.7 | 5.2 | 0.00 | 0.25 | 0.04 | 76 | 1014.8 |
| 20260506022444 | 64 | 231 | 1.7 | 5.2 | 0.00 | 0.25 | 0.04 | 76 | 1014.8 |
| 20260506022343 | 64 | 149 | 1.7 | 5.2 | 0.00 | 0.25 | 0.04 | 76 | 1014.8 |
| 20260506022243 | 64 | 203 | 1.7 | 4.3 | 0.00 | 0.25 | 0.04 | 76 | 1014.9 |
| 20260506022144 | 64 | 204 | 1.7 | 3.5 | 0.00 | 0.25 | 0.04 | 76 | 1014.8 |
| 20260506022038 | 64 | 229 | 1.7 | 4.3 | 0.00 | 0.25 | 0.04 | 76 | 1014.8 |
| 20260506021937 | 64 | 174 | 1.7 | 5.2 | 0.00 | 0.25 | 0.04 | 76 | 1014.9 |
| 20260506021857 | 64 | 155 | 2.6 | 6.1 | 0.00 | 0.25 | 0.04 | 76 | 1014.8 |
| 20260506021837 | 64 | 155 | 1.7 | 5.2 | 0.00 | 0.25 | 0.04 | 76 | 1014.8 |
| 20260506021753 | 64 | 158 | 1.7 | 6.1 | 0.00 | 0.25 | 0.04 | 76 | 1014.9 |
| 20260506021742 | 64 | 155 | 2.6 | 6.1 | 0.00 | 0.25 | 0.04 | 76 | 1014.8 |
| 20260506021538 | 64 | 155 | 2.6 | 6.1 | 0.00 | 0.25 | 0.04 | 76 | 1014.8 |
| 20260506021435 | 64 | 155 | 2.6 | 6.1 | 0.00 | 0.25 | 0.04 | 76 | 1014.8 |
| 20260506021333 | 64 | 222 | 2.6 | 6.1 | 0.00 | 0.25 | 0.04 | 76 | 1014.9 |
| 20260506021234 | 64 | 238 | 2.6 | 6.1 | 0.00 | 0.25 | 0.04 | 76 | 1014.8 |
| 20260506021134 | 64 | 238 | 2.6 | 6.1 | 0.00 | 0.25 | 0.04 | 76 | 1014.9 |
| 20260506021026 | 64 | 231 | 2.6 | 6.1 | 0.00 | 0.25 | 0.04 | 76 | 1014.7 |
| 20260506020926 | 64 | 250 | 2.6 | 6.1 | 0.00 | 0.25 | 0.04 | 76 | 1014.8 |
| 20260506020825 | 64 | 250 | 2.6 | 6.1 | 0.00 | 0.25 | 0.04 | 76 | 1014.7 |
| 20260506020726 | 64 | 258 | 2.6 | 6.1 | 0.00 | 0.25 | 0.04 | 76 | 1014.7 |
| 20260506020627 | 64 | 221 | 2.6 | 5.2 | 0.00 | 0.25 | 0.04 | 76 | 1014.7 |
| 20260506020519 | 64 | 219 | 2.6 | 5.2 | 0.00 | 0.25 | 0.04 | 76 | 1014.7 |
| 20260506020419 | 64 | 203 | 2.6 | 5.2 | 0.00 | 0.25 | 0.04 | 76 | 1014.8 |
| 20260506020320 | 64 | 207 | 2.6 | 6.1 | 0.00 | 0.25 | 0.04 | 76 | 1014.8 |
| 20260506020220 | 64 | 136 | 2.6 | 6.1 | 0.00 | 0.25 | 0.04 | 75 | 1014.9 |
| 20260506020121 | 64 | 253 | 2.6 | 6.1 | 0.00 | 0.25 | 0.04 | 75 | 1014.9 |
| 20260506020017 | 64 | 186 | 2.6 | 6.1 | 0.00 | 0.25 | 0.04 | 75 | 1014.8 |
| 20260506015917 | 64 | 231 | 2.6 | 6.1 | 0.00 | 0.25 | 0.04 | 75 | 1014.8 |
| 20260506015816 | 64 | 231 | 2.6 | 6.1 | 0.00 | 0.25 | 0.04 | 75 | 1014.8 |
| 20260506015716 | 64 | 202 | 2.6 | 6.1 | 0.00 | 0.25 | 0.04 | 75 | 1014.8 |
| 20260506015615 | 64 | 238 | 2.6 | 7.0 | 0.00 | 0.25 | 0.04 | 75 | 1014.8 |
| 20260506015507 | 64 | 136 | 2.6 | 7.0 | 0.00 | 0.25 | 0.04 | 75 | 1014.8 |
| 20260506015408 | 64 | 195 | 2.6 | 7.0 | 0.00 | 0.25 | 0.04 | 75 | 1014.8 |
| 20260506015308 | 65 | 204 | 2.6 | 7.0 | 0.00 | 0.25 | 0.04 | 75 | 1014.7 |
| 20260506015207 | 65 | 208 | 1.7 | 7.0 | 0.00 | 0.25 | 0.04 | 75 | 1014.7 |
| 20260506015110 | 65 | 219 | 1.7 | 7.0 | 0.00 | 0.25 | 0.04 | 74 | 1014.7 |
| 20260506015002 | 65 | 215 | 1.7 | 7.0 | 0.00 | 0.25 | 0.04 | 74 | 1014.7 |
| 20260506014901 | 65 | 144 | 1.7 | 7.0 | 0.00 | 0.25 | 0.04 | 74 | 1014.7 |
| 20260506014801 | 65 | 226 | 1.7 | 7.0 | 0.00 | 0.25 | 0.04 | 74 | 1014.7 |
| 20260506014702 | 65 | 124 | 1.7 | 7.0 | 0.00 | 0.25 | 0.04 | 74 | 1014.7 |
| 20260506014607 | 65 | 153 | 1.7 | 6.1 | 0.00 | 0.25 | 0.04 | 74 | 1014.7 |
| 20260506014455 | 65 | 122 | 1.7 | 6.1 | 0.00 | 0.25 | 0.04 | 74 | 1014.6 |
| 20260506014356 | 65 | 141 | 1.7 | 6.1 | 0.00 | 0.25 | 0.04 | 74 | 1014.7 |
| 20260506014255 | 65 | 139 | 1.7 | 6.1 | 0.00 | 0.25 | 0.04 | 73 | 1014.7 |
| 20260506014155 | 65 | 132 | 1.7 | 6.1 | 0.00 | 0.25 | 0.04 | 73 | 1014.7 |
| 20260506014058 | 65 | 143 | 2.6 | 6.1 | 0.00 | 0.25 | 0.04 | 73 | 1014.6 |
| 20260506013954 | 65 | 147 | 1.7 | 5.2 | 0.00 | 0.25 | 0.04 | 73 | 1014.6 |
| 20260506013853 | 65 | 186 | 1.7 | 5.2 | 0.00 | 0.25 | 0.04 | 72 | 1014.7 |
| 20260506013753 | 65 | 146 | 1.7 | 5.2 | 0.00 | 0.25 | 0.04 | 72 | 1014.7 |
| 20260506013651 | 65 | 141 | 1.7 | 5.2 | 0.00 | 0.25 | 0.04 | 72 | 1014.7 |
| 20260506013552 | 65 | 217 | 1.7 | 5.2 | 0.00 | 0.25 | 0.04 | 72 | 1014.7 |
| 20260506013444 | 65 | 200 | 1.7 | 5.2 | 0.00 | 0.25 | 0.04 | 72 | 1014.7 |
| 20260506013344 | 65 | 225 | 1.7 | 5.2 | 0.00 | 0.26 | 0.04 | 71 | 1014.7 |
| 20260506013244 | 65 | 236 | 1.7 | 4.3 | 0.00 | 0.26 | 0.04 | 71 | 1014.7 |
| 20260506013143 | 65 | 200 | 1.7 | 4.3 | 0.00 | 0.26 | 0.04 | 70 | 1014.7 |
| 20260506013045 | 65 | 141 | 0.9 | 4.3 | 0.00 | 0.26 | 0.04 | 70 | 1014.7 |
| 20260506012938 | 65 | 110 | 0.9 | 4.3 | 0.00 | 0.26 | 0.04 | 70 | 1014.7 |
| 20260506012838 | 65 | 158 | 0.9 | 4.3 | 0.00 | 0.26 | 0.04 | 70 | 1014.7 |
| 20260506012800 | 65 | 215 | 1.7 | 4.3 | 0.00 | 0.26 | 0.04 | 70 | 1014.6 |
| 20260506012738 | 65 | 146 | 1.7 | 4.3 | 0.00 | 0.26 | 0.04 | 70 | 1014.7 |
| 20260506012655 | 65 | 129 | 1.7 | 4.3 | 0.00 | 0.26 | 0.04 | 69 | 1014.6 |
| 20260506012645 | 65 | 215 | 1.7 | 4.3 | 0.00 | 0.26 | 0.04 | 70 | 1014.6 |
| 20260506012432 | 65 | 116 | 1.7 | 4.3 | 0.00 | 0.26 | 0.04 | 70 | 1014.6 |
| 20260506012251 | 65 | 225 | 1.7 | 4.3 | 0.00 | 0.26 | 0.04 | 71 | 1014.6 |
| 20260506012232 | 65 | 134 | 1.7 | 4.3 | 0.00 | 0.26 | 0.04 | 70 | 1014.6 |
| 20260506012147 | 65 | 122 | 1.7 | 4.3 | 0.00 | 0.26 | 0.04 | 71 | 1014.6 |
| 20260506012137 | 65 | 225 | 1.7 | 4.3 | 0.00 | 0.26 | 0.04 | 71 | 1014.6 |
| 20260506011927 | 65 | 118 | 1.7 | 5.2 | 0.00 | 0.26 | 0.04 | 71 | 1014.6 |
| 20260506011826 | 65 | 120 | 1.7 | 5.2 | 0.00 | 0.26 | 0.04 | 71 | 1014.6 |
| 20260506011748 | 65 | 207 | 1.7 | 5.2 | 0.00 | 0.26 | 0.04 | 71 | 1014.6 |
| 20260506011726 | 65 | 192 | 1.7 | 5.2 | 0.00 | 0.26 | 0.04 | 71 | 1014.6 |
| 20260506011643 | 65 | 200 | 1.7 | 5.2 | 0.00 | 0.26 | 0.04 | 71 | 1014.6 |
| 20260506011633 | 65 | 207 | 1.7 | 5.2 | 0.00 | 0.26 | 0.04 | 71 | 1014.6 |
| 20260506011422 | 65 | 160 | 1.7 | 5.2 | 0.00 | 0.26 | 0.04 | 71 | 1014.5 |
| 20260506011322 | 65 | 240 | 1.7 | 5.2 | 0.00 | 0.26 | 0.04 | 72 | 1014.5 |
| 20260506011222 | 65 | 150 | 1.7 | 5.2 | 0.00 | 0.26 | 0.04 | 72 | 1014.5 |
| 20260506011122 | 65 | 205 | 1.7 | 5.2 | 0.00 | 0.26 | 0.04 | 72 | 1014.5 |
| 20260506011021 | 65 | 136 | 1.7 | 5.2 | 0.00 | 0.26 | 0.04 | 72 | 1014.5 |
| 20260506010917 | 65 | 163 | 1.7 | 3.5 | 0.00 | 0.26 | 0.04 | 73 | 1014.5 |
| 20260506010817 | 65 | 136 | 1.7 | 3.5 | 0.00 | 0.26 | 0.04 | 73 | 1014.5 |
| 20260506010717 | 65 | 139 | 1.7 | 5.2 | 0.00 | 0.26 | 0.04 | 73 | 1014.5 |
| 20260506010616 | 65 | 134 | 1.7 | 5.2 | 0.00 | 0.26 | 0.04 | 73 | 1014.5 |
| 20260506010516 | 65 | 124 | 1.7 | 5.2 | 0.00 | 0.26 | 0.04 | 73 | 1014.5 |
| 20260506010408 | 65 | 115 | 1.7 | 5.2 | 0.00 | 0.26 | 0.04 | 73 | 1014.4 |
| 20260506010307 | 65 | 116 | 1.7 | 5.2 | 0.00 | 0.26 | 0.04 | 73 | 1014.5 |
| 20260506010240 | 65 | 233 | 1.7 | 5.2 | 0.00 | 0.27 | 0.04 | 73 | 1014.5 |
| 20260506010207 | 65 | 167 | 1.7 | 5.2 | 0.00 | 0.26 | 0.04 | 73 | 1014.5 |
| 20260506010125 | 65 | 127 | 0.9 | 5.2 | 0.00 | 0.27 | 0.04 | 73 | 1014.5 |
| 20260506010114 | 65 | 233 | 1.7 | 5.2 | 0.00 | 0.27 | 0.04 | 73 | 1014.5 |
| 20260506005906 | 65 | 221 | 1.7 | 5.2 | 0.00 | 0.27 | 0.04 | 73 | 1014.5 |
| 20260506005805 | 65 | 151 | 1.7 | 5.2 | 0.00 | 0.27 | 0.04 | 73 | 1014.5 |
| 20260506005724 | 65 | 229 | 1.7 | 6.1 | 0.00 | 0.27 | 0.04 | 74 | 1014.5 |
| 20260506005705 | 65 | 176 | 1.7 | 4.3 | 0.00 | 0.27 | 0.04 | 73 | 1014.5 |
| 20260506005618 | 65 | 174 | 1.7 | 5.2 | 0.00 | 0.27 | 0.04 | 73 | 1014.4 |
| 20260506005608 | 65 | 229 | 1.7 | 6.1 | 0.00 | 0.27 | 0.04 | 74 | 1014.5 |
| 20260506005357 | 64 | 230 | 1.7 | 6.1 | 0.00 | 0.27 | 0.04 | 74 | 1014.4 |
| 20260506005257 | 64 | 231 | 1.7 | 6.1 | 0.00 | 0.27 | 0.04 | 74 | 1014.4 |
| 20260506005157 | 64 | 230 | 2.6 | 6.1 | 0.00 | 0.27 | 0.04 | 74 | 1014.4 |
| 20260506005058 | 64 | 138 | 1.7 | 6.1 | 0.00 | 0.27 | 0.04 | 73 | 1014.4 |
| 20260506004957 | 64 | 190 | 1.7 | 6.1 | 0.00 | 0.27 | 0.04 | 74 | 1014.4 |
| 20260506004850 | 64 | 172 | 1.7 | 6.1 | 0.00 | 0.27 | 0.04 | 74 | 1014.4 |
| 20260506004749 | 64 | 150 | 2.6 | 6.1 | 0.00 | 0.27 | 0.04 | 74 | 1014.4 |
| 20260506004649 | 64 | 160 | 2.6 | 6.1 | 0.00 | 0.27 | 0.04 | 74 | 1014.4 |
| 20260506004550 | 64 | 226 | 1.7 | 6.1 | 0.00 | 0.27 | 0.04 | 74 | 1014.4 |
| 20260506004347 | 64 | 168 | 1.7 | 6.1 | 0.00 | 0.27 | 0.04 | 75 | 1014.4 |
| 20260506004248 | 64 | 217 | 1.7 | 5.2 | 0.00 | 0.27 | 0.04 | 75 | 1014.4 |
| 20260506004147 | 64 | 229 | 1.7 | 5.2 | 0.00 | 0.27 | 0.04 | 75 | 1014.4 |
| 20260506004045 | 64 | 226 | 2.6 | 5.2 | 0.00 | 0.27 | 0.04 | 74 | 1014.4 |
| 20260506003946 | 64 | 235 | 1.7 | 5.2 | 0.00 | 0.27 | 0.04 | 74 | 1014.4 |
| 20260506003839 | 65 | 197 | 1.7 | 5.2 | 0.00 | 0.27 | 0.04 | 74 | 1014.4 |
| 20260506003740 | 65 | 141 | 1.7 | 4.3 | 0.00 | 0.27 | 0.04 | 75 | 1014.4 |
| 20260506003639 | 65 | 239 | 1.7 | 4.3 | 0.00 | 0.27 | 0.04 | 75 | 1014.4 |
| 20260506003540 | 65 | 148 | 1.7 | 4.3 | 0.00 | 0.27 | 0.04 | 75 | 1014.4 |
| 20260506003440 | 64 | 107 | 1.7 | 3.5 | 0.00 | 0.27 | 0.04 | 75 | 1014.4 |
| 20260506003333 | 64 | 221 | 1.7 | 3.5 | 0.00 | 0.27 | 0.04 | 75 | 1014.4 |
| 20260506003232 | 64 | 221 | 1.7 | 3.5 | 0.00 | 0.27 | 0.04 | 75 | 1014.4 |
| 20260506003131 | 64 | 207 | 1.7 | 3.5 | 0.00 | 0.27 | 0.04 | 75 | 1014.5 |
| 20260506003031 | 64 | 213 | 1.7 | 4.3 | 0.00 | 0.27 | 0.04 | 76 | 1014.5 |
| 20260506002934 | 64 | 217 | 1.7 | 4.3 | 0.00 | 0.27 | 0.04 | 76 | 1014.4 |
| 20260506002828 | 64 | 228 | 2.6 | 6.1 | 0.00 | 0.27 | 0.04 | 76 | 1014.4 |
| 20260506002725 | 64 | 217 | 2.6 | 6.1 | 0.00 | 0.27 | 0.04 | 76 | 1014.3 |
| 20260506002703 | 64 | 238 | 2.6 | 6.1 | 0.00 | 0.27 | 0.04 | 75 | 1014.4 |
| 20260506002625 | 64 | 235 | 2.6 | 6.1 | 0.00 | 0.27 | 0.04 | 76 | 1014.4 |
| 20260506002545 | 64 | 229 | 2.6 | 6.1 | 0.00 | 0.27 | 0.04 | 75 | 1014.4 |
| 20260506002534 | 64 | 238 | 2.6 | 6.1 | 0.00 | 0.27 | 0.04 | 75 | 1014.4 |
| 20260506002319 | 64 | 238 | 2.6 | 6.1 | 0.00 | 0.27 | 0.04 | 75 | 1014.4 |
| 20260506002219 | 64 | 238 | 2.6 | 6.1 | 0.00 | 0.27 | 0.04 | 74 | 1014.4 |
| 20260506002119 | 64 | 241 | 2.6 | 6.1 | 0.00 | 0.27 | 0.04 | 74 | 1014.4 |
| 20260506002019 | 64 | 267 | 2.6 | 6.1 | 0.00 | 0.27 | 0.04 | 74 | 1014.4 |
| 20260506001921 | 64 | 236 | 2.6 | 6.1 | 0.00 | 0.27 | 0.04 | 75 | 1014.4 |
| 20260506001814 | 64 | 238 | 2.6 | 6.1 | 0.00 | 0.27 | 0.04 | 75 | 1014.4 |
| 20260506001714 | 64 | 236 | 2.6 | 6.1 | 0.00 | 0.27 | 0.04 | 75 | 1014.4 |
| 20260506001648 | 64 | 193 | 2.6 | 6.1 | 0.00 | 0.27 | 0.04 | 75 | 1014.4 |
| 20260506001613 | 64 | 225 | 2.6 | 6.1 | 0.00 | 0.27 | 0.04 | 75 | 1014.4 |
| 20260506001547 | 64 | 200 | 2.6 | 6.1 | 0.00 | 0.27 | 0.04 | 75 | 1014.4 |
| 20260506001534 | 64 | 193 | 2.6 | 6.1 | 0.00 | 0.27 | 0.04 | 75 | 1014.4 |
| 20260506001309 | 64 | 181 | 2.6 | 6.1 | 0.00 | 0.27 | 0.04 | 75 | 1014.4 |
| 20260506001210 | 64 | 219 | 2.6 | 6.1 | 0.00 | 0.27 | 0.04 | 74 | 1014.4 |
| 20260506001109 | 64 | 225 | 2.6 | 6.1 | 0.00 | 0.27 | 0.04 | 74 | 1014.4 |
| 20260506001009 | 64 | 233 | 2.6 | 6.1 | 0.00 | 0.27 | 0.04 | 75 | 1014.4 |
| 20260506000911 | 64 | 224 | 2.6 | 5.2 | 0.00 | 0.27 | 0.04 | 75 | 1014.4 |
| 20260506000802 | 64 | 231 | 2.6 | 5.2 | 0.00 | 0.27 | 0.04 | 75 | 1014.4 |
| 20260506000701 | 64 | 172 | 2.6 | 5.2 | 0.00 | 0.27 | 0.04 | 75 | 1014.4 |
| 20260506000602 | 64 | 135 | 2.6 | 5.2 | 0.00 | 0.27 | 0.04 | 75 | 1014.4 |
| 20260506000502 | 64 | 210 | 2.6 | 5.2 | 0.00 | 0.27 | 0.04 | 75 | 1014.4 |
| 20260506000404 | 64 | 150 | 2.6 | 5.2 | 0.00 | 0.27 | 0.04 | 75 | 1014.4 |
| 20260506000256 | 64 | 176 | 2.6 | 5.2 | 0.00 | 0.27 | 0.04 | 74 | 1014.4 |
| 20260506000157 | 64 | 211 | 2.6 | 5.2 | 0.00 | 0.27 | 0.04 | 75 | 1014.4 |
| 20260506000056 | 64 | 195 | 2.6 | 5.2 | 0.00 | 0.27 | 0.04 | 75 | 1014.4 |
| 20260505235955 | 64 | 231 | 2.6 | 5.2 | 0.00 | 0.27 | 0.04 | 75 | 1014.4 |
| 20260505235858 | 64 | 228 | 2.6 | 5.2 | 0.00 | 0.27 | 0.04 | 75 | 1014.4 |
| 20260505235751 | 64 | 215 | 2.6 | 5.2 | 0.00 | 0.27 | 0.04 | 75 | 1014.4 |
| 20260505235650 | 64 | 204 | 2.6 | 5.2 | 0.00 | 0.27 | 0.04 | 75 | 1014.4 |
| 20260505235610 | 64 | 242 | 2.6 | 5.2 | 0.00 | 0.27 | 0.04 | 75 | 1014.4 |
| 20260505235549 | 64 | 225 | 2.6 | 5.2 | 0.00 | 0.27 | 0.04 | 74 | 1014.4 |
| 20260505235511 | 64 | 250 | 2.6 | 5.2 | 0.00 | 0.27 | 0.04 | 74 | 1014.4 |
| 20260505235455 | 64 | 242 | 2.6 | 5.2 | 0.00 | 0.27 | 0.04 | 75 | 1014.4 |
| 20260505235243 | 64 | 155 | 2.6 | 5.2 | 0.00 | 0.27 | 0.04 | 74 | 1014.4 |
| 20260505235143 | 64 | 207 | 2.6 | 5.2 | 0.00 | 0.27 | 0.04 | 74 | 1014.4 |
| 20260505235043 | 64 | 239 | 2.6 | 5.2 | 0.00 | 0.27 | 0.04 | 74 | 1014.4 |
| 20260505234944 | 64 | 239 | 2.6 | 5.2 | 0.00 | 0.27 | 0.04 | 74 | 1014.4 |
| 20260505234845 | 65 | 219 | 2.6 | 5.2 | 0.00 | 0.27 | 0.04 | 74 | 1014.4 |
| 20260505234739 | 65 | 167 | 1.7 | 5.2 | 0.00 | 0.27 | 0.04 | 74 | 1014.4 |
| 20260505234640 | 65 | 238 | 1.7 | 5.2 | 0.00 | 0.27 | 0.04 | 74 | 1014.4 |
| 20260505234540 | 65 | 217 | 1.7 | 4.3 | 0.00 | 0.27 | 0.04 | 74 | 1014.4 |
| 20260505234439 | 65 | 221 | 1.7 | 6.1 | 0.00 | 0.27 | 0.04 | 74 | 1014.4 |
| 20260505234353 | 65 | 207 | 1.7 | 6.1 | 0.00 | 0.27 | 0.04 | 74 | 1014.4 |
| 20260505234233 | 65 | 121 | 1.7 | 6.1 | 0.00 | 0.27 | 0.04 | 74 | 1014.3 |
| 20260505234132 | 65 | 212 | 1.7 | 6.1 | 0.00 | 0.27 | 0.04 | 74 | 1014.3 |
| 20260505234056 | 65 | 174 | 1.7 | 6.1 | 0.00 | 0.27 | 0.04 | 73 | 1014.3 |
| 20260505234031 | 65 | 174 | 1.7 | 6.1 | 0.00 | 0.27 | 0.04 | 73 | 1014.3 |
| 20260505233949 | 65 | 208 | 1.7 | 6.1 | 0.00 | 0.27 | 0.04 | 73 | 1014.3 |
| 20260505233939 | 65 | 174 | 1.7 | 6.1 | 0.00 | 0.27 | 0.04 | 73 | 1014.3 |
| 20260505233727 | 65 | 194 | 1.7 | 6.1 | 0.00 | 0.27 | 0.04 | 74 | 1014.3 |
| 20260505233627 | 65 | 148 | 1.7 | 6.1 | 0.00 | 0.27 | 0.04 | 73 | 1014.3 |
| 20260505233551 | 65 | 232 | 1.7 | 4.3 | 0.00 | 0.27 | 0.04 | 74 | 1014.3 |
| 20260505233527 | 65 | 197 | 1.7 | 6.1 | 0.00 | 0.27 | 0.04 | 74 | 1014.3 |
| 20260505233446 | 65 | 235 | 1.7 | 4.3 | 0.00 | 0.27 | 0.04 | 74 | 1014.4 |
| 20260505233433 | 65 | 232 | 1.7 | 4.3 | 0.00 | 0.27 | 0.04 | 74 | 1014.3 |
| 20260505233224 | 65 | 219 | 1.7 | 4.3 | 0.00 | 0.27 | 0.04 | 74 | 1014.3 |
| 20260505233123 | 65 | 236 | 1.7 | 4.3 | 0.00 | 0.27 | 0.04 | 74 | 1014.3 |
| 20260505233024 | 65 | 231 | 1.7 | 4.3 | 0.00 | 0.27 | 0.04 | 74 | 1014.3 |
| 20260505232921 | 65 | 242 | 1.7 | 4.3 | 0.00 | 0.27 | 0.04 | 74 | 1014.3 |
| 20260505232821 | 65 | 208 | 1.7 | 4.3 | 0.00 | 0.27 | 0.04 | 74 | 1014.3 |
| 20260505232714 | 65 | 143 | 1.7 | 4.3 | 0.00 | 0.27 | 0.04 | 73 | 1014.4 |
| 20260505232613 | 65 | 140 | 1.7 | 4.3 | 0.00 | 0.27 | 0.04 | 73 | 1014.4 |
| 20260505232513 | 65 | 225 | 1.7 | 4.3 | 0.00 | 0.27 | 0.04 | 74 | 1014.4 |
| 20260505232414 | 65 | 217 | 1.7 | 7.0 | 0.00 | 0.27 | 0.04 | 74 | 1014.3 |
| 20260505232316 | 65 | 170 | 1.7 | 7.0 | 0.00 | 0.27 | 0.04 | 74 | 1014.4 |
| 20260505232212 | 65 | 143 | 1.7 | 7.0 | 0.00 | 0.27 | 0.04 | 74 | 1014.4 |
| 20260505232111 | 65 | 204 | 1.7 | 7.0 | 0.00 | 0.27 | 0.04 | 74 | 1014.4 |
| 20260505232027 | 65 | 231 | 1.7 | 7.0 | 0.00 | 0.27 | 0.04 | 74 | 1014.3 |
| 20260505232011 | 65 | 134 | 1.7 | 7.0 | 0.00 | 0.27 | 0.04 | 74 | 1014.3 |
| 20260505231923 | 65 | 200 | 1.7 | 7.0 | 0.00 | 0.27 | 0.04 | 74 | 1014.3 |
| 20260505231913 | 65 | 231 | 1.7 | 7.0 | 0.00 | 0.27 | 0.04 | 74 | 1014.3 |
| 20260505231705 | 65 | 226 | 1.7 | 7.0 | 0.00 | 0.27 | 0.04 | 74 | 1014.3 |
| 20260505231606 | 65 | 115 | 1.7 | 7.0 | 0.00 | 0.27 | 0.04 | 74 | 1014.3 |
| 20260505231504 | 65 | 181 | 1.7 | 7.0 | 0.00 | 0.27 | 0.04 | 73 | 1014.3 |
| 20260505231404 | 65 | 217 | 1.7 | 4.3 | 0.00 | 0.27 | 0.04 | 74 | 1014.3 |
| 20260505231303 | 65 | 150 | 1.7 | 4.3 | 0.00 | 0.27 | 0.04 | 74 | 1014.3 |
| 20260505231157 | 65 | 152 | 1.7 | 4.3 | 0.00 | 0.27 | 0.04 | 74 | 1014.3 |
| 20260505231057 | 64 | 141 | 1.7 | 4.3 | 0.00 | 0.27 | 0.04 | 74 | 1014.3 |
| 20260505230958 | 64 | 232 | 1.7 | 5.2 | 0.00 | 0.27 | 0.04 | 74 | 1014.3 |
| 20260505230857 | 65 | 225 | 1.7 | 5.2 | 0.00 | 0.27 | 0.04 | 73 | 1014.3 |
| 20260505230837 | 65 | 231 | 1.7 | 5.2 | 0.00 | 0.27 | 0.04 | 73 | 1014.3 |
| 20260505230758 | 65 | 231 | 1.7 | 5.2 | 0.00 | 0.27 | 0.04 | 73 | 1014.3 |
| 20260505230650 | 65 | 233 | 1.7 | 5.2 | 0.00 | 0.27 | 0.04 | 73 | 1014.3 |
| 20260505230549 | 65 | 245 | 1.7 | 5.2 | 0.00 | 0.28 | 0.04 | 73 | 1014.4 |
| 20260505230449 | 65 | 255 | 1.7 | 5.2 | 0.00 | 0.28 | 0.04 | 74 | 1014.3 |
| 20260505230349 | 65 | 143 | 1.7 | 5.2 | 0.00 | 0.28 | 0.04 | 73 | 1014.3 |
| 20260505230251 | 65 | 226 | 1.7 | 5.2 | 0.00 | 0.28 | 0.04 | 73 | 1014.3 |
| 20260505230146 | 65 | 218 | 1.7 | 5.2 | 0.00 | 0.28 | 0.04 | 73 | 1014.4 |
| 20260505230046 | 65 | 165 | 1.7 | 5.2 | 0.00 | 0.28 | 0.04 | 74 | 1014.4 |
| 20260505225945 | 65 | 150 | 1.7 | 4.3 | 0.00 | 0.28 | 0.04 | 74 | 1014.4 |
| 20260505225846 | 65 | 170 | 1.7 | 4.3 | 0.00 | 0.28 | 0.04 | 74 | 1014.4 |
| 20260505225746 | 65 | 239 | 1.7 | 4.3 | 0.00 | 0.28 | 0.04 | 74 | 1014.4 |
| 20260505225639 | 65 | 150 | 1.7 | 4.3 | 0.00 | 0.28 | 0.04 | 74 | 1014.4 |
| 20260505225537 | 65 | 235 | 1.7 | 4.3 | 0.00 | 0.28 | 0.04 | 74 | 1014.4 |
| 20260505225436 | 65 | 236 | 1.7 | 4.3 | 0.00 | 0.28 | 0.04 | 74 | 1014.4 |
| 20260505225337 | 65 | 236 | 1.7 | 4.3 | 0.00 | 0.28 | 0.04 | 73 | 1014.4 |
| 20260505225241 | 65 | 214 | 1.7 | 4.3 | 0.00 | 0.28 | 0.04 | 73 | 1014.4 |
| 20260505225131 | 65 | 238 | 1.7 | 4.3 | 0.00 | 0.28 | 0.04 | 74 | 1014.4 |
| 20260505225032 | 65 | 200 | 1.7 | 4.3 | 0.00 | 0.28 | 0.04 | 74 | 1014.4 |
| 20260505224931 | 65 | 225 | 1.7 | 5.2 | 0.00 | 0.28 | 0.04 | 74 | 1014.4 |
| 20260505224832 | 65 | 228 | 1.7 | 5.2 | 0.00 | 0.28 | 0.04 | 74 | 1014.4 |
| 20260505224734 | 65 | 181 | 1.7 | 5.2 | 0.00 | 0.28 | 0.04 | 74 | 1014.4 |
| 20260505224631 | 65 | 240 | 1.7 | 5.2 | 0.00 | 0.28 | 0.04 | 74 | 1014.4 |
| 20260505224529 | 65 | 219 | 1.7 | 5.2 | 0.00 | 0.28 | 0.04 | 74 | 1014.5 |
| 20260505224429 | 65 | 198 | 1.7 | 5.2 | 0.00 | 0.28 | 0.04 | 74 | 1014.4 |
| 20260505224328 | 65 | 208 | 1.7 | 5.2 | 0.00 | 0.28 | 0.04 | 74 | 1014.4 |
| 20260505224227 | 65 | 185 | 1.7 | 5.2 | 0.00 | 0.28 | 0.04 | 74 | 1014.5 |
| 20260505224120 | 65 | 221 | 1.7 | 5.2 | 0.00 | 0.28 | 0.04 | 73 | 1014.4 |
| 20260505224019 | 65 | 232 | 1.7 | 5.2 | 0.00 | 0.28 | 0.04 | 73 | 1014.4 |
| 20260505223920 | 65 | 224 | 1.7 | 5.2 | 0.00 | 0.28 | 0.04 | 73 | 1014.5 |
| 20260505223820 | 65 | 242 | 1.7 | 5.2 | 0.00 | 0.28 | 0.04 | 72 | 1014.5 |
| 20260505223720 | 65 | 225 | 1.7 | 4.3 | 0.00 | 0.28 | 0.04 | 73 | 1014.5 |
| 20260505223620 | 65 | 137 | 1.7 | 4.3 | 0.00 | 0.28 | 0.04 | 72 | 1014.5 |
| 20260505223518 | 65 | 137 | 2.6 | 4.3 | 0.00 | 0.28 | 0.04 | 72 | 1014.5 |
| 20260505223418 | 65 | 223 | 2.6 | 4.3 | 0.00 | 0.28 | 0.04 | 71 | 1014.5 |
| 20260505223315 | 65 | 212 | 2.6 | 4.3 | 0.00 | 0.28 | 0.04 | 71 | 1014.6 |
| 20260505223215 | 66 | 186 | 2.6 | 4.3 | 0.00 | 0.28 | 0.04 | 70 | 1014.6 |
| 20260505223109 | 66 | 132 | 2.6 | 4.3 | 0.00 | 0.28 | 0.04 | 70 | 1014.6 |
| 20260505223007 | 66 | 191 | 2.6 | 5.2 | 0.00 | 0.28 | 0.04 | 70 | 1014.6 |
| 20260505222908 | 66 | 243 | 2.6 | 5.2 | 0.00 | 0.28 | 0.04 | 70 | 1014.6 |
| 20260505222807 | 66 | 248 | 2.6 | 5.2 | 0.00 | 0.28 | 0.04 | 70 | 1014.6 |
| 20260505222710 | 66 | 136 | 2.6 | 5.2 | 0.00 | 0.28 | 0.04 | 70 | 1014.6 |
| 20260505222601 | 67 | 212 | 2.6 | 5.2 | 0.00 | 0.28 | 0.04 | 69 | 1014.6 |
| 20260505222501 | 67 | 218 | 1.7 | 5.2 | 0.00 | 0.28 | 0.04 | 69 | 1014.6 |
| 20260505222402 | 67 | 203 | 1.7 | 5.2 | 0.00 | 0.28 | 0.04 | 69 | 1014.6 |
| 20260505222301 | 67 | 205 | 1.7 | 5.2 | 0.00 | 0.28 | 0.04 | 68 | 1014.6 |
| 20260505222202 | 67 | 135 | 1.7 | 5.2 | 0.00 | 0.28 | 0.04 | 68 | 1014.6 |
| 20260505222100 | 67 | 211 | 1.7 | 5.2 | 0.00 | 0.28 | 0.04 | 68 | 1014.6 |
| 20260505221959 | 67 | 236 | 1.7 | 5.2 | 0.00 | 0.28 | 0.04 | 68 | 1014.6 |
| 20260505221900 | 67 | 105 | 1.7 | 5.2 | 0.00 | 0.28 | 0.04 | 68 | 1014.7 |
| 20260505221757 | 67 | 161 | 1.7 | 5.2 | 0.00 | 0.28 | 0.04 | 67 | 1014.7 |
| 20260505221657 | 67 | 238 | 1.7 | 5.2 | 0.00 | 0.28 | 0.04 | 66 | 1014.7 |
| 20260505221550 | 68 | 204 | 1.7 | 4.3 | 0.00 | 0.28 | 0.04 | 66 | 1014.7 |
| 20260505221450 | 68 | 228 | 1.7 | 4.3 | 0.00 | 0.28 | 0.04 | 66 | 1014.7 |
| 20260505221349 | 68 | 167 | 1.7 | 4.3 | 0.00 | 0.28 | 0.04 | 66 | 1014.7 |
| 20260505221250 | 68 | 116 | 1.7 | 4.3 | 0.00 | 0.28 | 0.04 | 66 | 1014.7 |
| 20260505221151 | 68 | 150 | 0.9 | 4.3 | 0.00 | 0.28 | 0.04 | 67 | 1014.7 |
| 20260505221045 | 68 | 134 | 0.9 | 4.3 | 0.00 | 0.28 | 0.04 | 68 | 1014.7 |
| 20260505220945 | 68 | 117 | 0.9 | 4.3 | 0.00 | 0.28 | 0.04 | 68 | 1014.7 |
| 20260505220851 | 66 | 125 | 0.9 | 5.2 | 0.00 | 0.28 | 0.04 | 69 | 1014.7 |
| 20260505220846 | 68 | 231 | 0.9 | 4.3 | 0.00 | 0.28 | 0.04 | 68 | 1014.7 |
| 20260505220751 | 67 | 164 | 0.9 | 4.3 | 0.00 | 0.28 | 0.04 | 68 | 1014.7 |
| 20260505220736 | 67 | 135 | 0.9 | 3.5 | 0.00 | 0.28 | 0.04 | 68 | 1014.7 |
| 20260505220539 | 67 | 98 | 0.9 | 3.5 | 0.00 | 0.28 | 0.04 | 68 | 1014.7 |
| 20260505220515 | 67 | 136 | 0.9 | 3.5 | 0.00 | 0.28 | 0.04 | 69 | 1014.7 |
| 20260505220340 | 67 | 126 | 0.9 | 3.5 | 0.00 | 0.28 | 0.04 | 69 | 1014.7 |
| 20260505220254 | 66 | 125 | 0.9 | 3.5 | 0.00 | 0.28 | 0.04 | 69 | 1014.7 |
| 20260505220243 | 66 | 125 | 0.9 | 5.2 | 0.00 | 0.28 | 0.04 | 69 | 1014.7 |
| 20260505220033 | 66 | 152 | 1.7 | 5.2 | 0.00 | 0.28 | 0.04 | 70 | 1014.8 |
| 20260505215933 | 66 | 76 | 1.7 | 5.2 | 0.00 | 0.28 | 0.04 | 69 | 1014.7 |
| 20260505215834 | 66 | 108 | 1.7 | 5.2 | 0.00 | 0.28 | 0.04 | 70 | 1014.8 |
| 20260505215733 | 65 | 78 | 0.9 | 5.2 | 0.00 | 0.28 | 0.04 | 71 | 1014.8 |
| 20260505215633 | 65 | 150 | 0.9 | 5.2 | 0.00 | 0.28 | 0.04 | 70 | 1014.8 |
| 20260505215529 | 65 | 277 | 0.9 | 5.2 | 0.00 | 0.28 | 0.04 | 71 | 1014.7 |
| 20260505215430 | 65 | 273 | 0.9 | 5.2 | 0.00 | 0.28 | 0.04 | 71 | 1014.8 |
| 20260505215329 | 66 | 260 | 0.9 | 5.2 | 0.00 | 0.28 | 0.04 | 70 | 1014.8 |
| 20260505215228 | 66 | 200 | 0.9 | 5.2 | 0.00 | 0.28 | 0.04 | 70 | 1014.8 |
| 20260505215128 | 66 | 155 | 0.9 | 4.3 | 0.00 | 0.28 | 0.04 | 69 | 1014.8 |
| 20260505215020 | 66 | 153 | 0.9 | 4.3 | 0.00 | 0.28 | 0.04 | 70 | 1014.8 |
| 20260505214919 | 66 | 212 | 0.9 | 3.5 | 0.00 | 0.28 | 0.04 | 71 | 1014.8 |
| 20260505214844 | 66 | 224 | 0.9 | 3.5 | 0.00 | 0.28 | 0.04 | 70 | 1014.8 |
| 20260505214820 | 66 | 245 | 0.9 | 3.5 | 0.00 | 0.28 | 0.04 | 70 | 1014.8 |
| 20260505214738 | 66 | 224 | 0.9 | 3.5 | 0.00 | 0.28 | 0.04 | 70 | 1014.8 |
| 20260505214728 | 66 | 224 | 0.9 | 3.5 | 0.00 | 0.28 | 0.04 | 70 | 1014.8 |
| 20260505214517 | 66 | 260 | 0.9 | 3.5 | 0.00 | 0.28 | 0.04 | 69 | 1014.8 |
| 20260505214418 | 66 | 260 | 0.9 | 3.5 | 0.00 | 0.28 | 0.04 | 69 | 1014.9 |
| 20260505214317 | 66 | 257 | 0.9 | 3.5 | 0.00 | 0.28 | 0.04 | 69 | 1014.9 |
| 20260505214215 | 66 | 227 | 0.9 | 3.5 | 0.00 | 0.28 | 0.04 | 70 | 1014.9 |
| 20260505214116 | 66 | 141 | 0.9 | 3.5 | 0.00 | 0.28 | 0.04 | 70 | 1014.9 |
| 20260505214010 | 66 | 126 | 0.9 | 3.5 | 0.00 | 0.28 | 0.04 | 70 | 1014.9 |
| 20260505213908 | 66 | 149 | 0.9 | 3.5 | 0.00 | 0.28 | 0.04 | 71 | 1014.9 |
| 20260505213807 | 66 | 210 | 0.9 | 3.5 | 0.00 | 0.28 | 0.04 | 70 | 1014.9 |
| 20260505213707 | 66 | 219 | 0.9 | 3.5 | 0.00 | 0.28 | 0.04 | 70 | 1014.9 |
| 20260505213610 | 66 | 150 | 0.9 | 3.5 | 0.00 | 0.28 | 0.04 | 71 | 1014.9 |
| 20260505213503 | 66 | 105 | 0.0 | 1.7 | 0.00 | 0.28 | 0.04 | 71 | 1014.9 |
| 20260505213403 | 65 | 151 | 0.0 | 1.7 | 0.00 | 0.28 | 0.04 | 71 | 1014.9 |
| 20260505213304 | 65 | 163 | 0.0 | 1.7 | 0.00 | 0.28 | 0.04 | 72 | 1014.9 |
| 20260505213204 | 65 | 58 | 0.0 | 1.7 | 0.00 | 0.28 | 0.04 | 72 | 1014.9 |
| 20260505213106 | 65 | 33 | 0.0 | 1.7 | 0.00 | 0.28 | 0.04 | 72 | 1014.9 |
| 20260505213002 | 65 | 34 | 0.0 | 1.7 | 0.00 | 0.28 | 0.04 | 72 | 1014.9 |
| 20260505212900 | 65 | 36 | 0.0 | 1.7 | 0.00 | 0.28 | 0.04 | 72 | 1015.0 |
| 20260505212759 | 65 | 70 | 0.0 | 1.7 | 0.00 | 0.28 | 0.04 | 72 | 1014.9 |
| 20260505212657 | 65 | 74 | 0.0 | 1.7 | 0.00 | 0.28 | 0.04 | 72 | 1015.0 |
| 20260505212600 | 65 | 13 | 0.0 | 1.7 | 0.00 | 0.28 | 0.04 | 72 | 1015.0 |
| 20260505212455 | 65 | 13 | 0.0 | 1.7 | 0.00 | 0.28 | 0.04 | 72 | 1014.9 |
| 20260505212353 | 65 | 97 | 0.0 | 0.9 | 0.00 | 0.28 | 0.04 | 71 | 1015.0 |
| 20260505212254 | 65 | 117 | 0.0 | 0.9 | 0.00 | 0.28 | 0.04 | 72 | 1015.0 |
| 20260505212152 | 65 | 117 | 0.0 | 1.7 | 0.00 | 0.28 | 0.04 | 72 | 1015.0 |
| 20260505212050 | 65 | 117 | 0.0 | 1.7 | 0.00 | 0.28 | 0.04 | 73 | 1015.0 |
| 20260505211949 | 65 | 117 | 0.0 | 1.7 | 0.00 | 0.28 | 0.04 | 73 | 1015.0 |
| 20260505211848 | 65 | 117 | 0.9 | 2.6 | 0.00 | 0.28 | 0.04 | 74 | 1015.0 |
| 20260505211747 | 65 | 231 | 0.9 | 2.6 | 0.00 | 0.28 | 0.04 | 74 | 1015.0 |
| 20260505211645 | 65 | 231 | 0.9 | 2.6 | 0.00 | 0.28 | 0.04 | 76 | 1015.0 |
| 20260505211545 | 65 | 231 | 0.9 | 2.6 | 0.00 | 0.28 | 0.04 | 76 | 1015.0 |
| 20260505211439 | 65 | 231 | 0.9 | 2.6 | 0.00 | 0.28 | 0.04 | 76 | 1015.0 |
| 20260505211337 | 65 | 231 | 0.9 | 2.6 | 0.00 | 0.28 | 0.04 | 75 | 1015.0 |
| 20260505211238 | 65 | 231 | 0.9 | 2.6 | 0.00 | 0.28 | 0.04 | 75 | 1015.0 |
| 20260505211137 | 65 | 228 | 0.9 | 4.3 | 0.00 | 0.28 | 0.04 | 76 | 1015.0 |
| 20260505211040 | 64 | 228 | 0.9 | 4.3 | 0.00 | 0.28 | 0.04 | 76 | 1015.0 |
| 20260505210933 | 64 | 210 | 0.9 | 4.3 | 0.00 | 0.28 | 0.04 | 77 | 1015.0 |
| 20260505210834 | 64 | 146 | 0.9 | 4.3 | 0.00 | 0.28 | 0.04 | 77 | 1015.0 |
| 20260505210733 | 64 | 145 | 0.9 | 4.3 | 0.00 | 0.28 | 0.04 | 77 | 1015.1 |
| 20260505210633 | 64 | 115 | 0.9 | 4.3 | 0.00 | 0.28 | 0.04 | 78 | 1015.0 |
| 20260505210533 | 64 | 179 | 0.9 | 4.3 | 0.00 | 0.28 | 0.04 | 79 | 1015.1 |
| 20260505210428 | 63 | 179 | 0.9 | 4.3 | 0.00 | 0.28 | 0.04 | 79 | 1015.1 |
| 20260505210328 | 63 | 146 | 1.7 | 4.3 | 0.00 | 0.28 | 0.04 | 79 | 1015.0 |
| 20260505210227 | 63 | 219 | 1.7 | 4.3 | 0.00 | 0.28 | 0.04 | 79 | 1015.1 |
| 20260505210127 | 63 | 217 | 1.7 | 4.3 | 0.00 | 0.28 | 0.04 | 79 | 1015.0 |
| 20260505210029 | 63 | 217 | 1.7 | 4.3 | 0.00 | 0.28 | 0.04 | 79 | 1015.1 |
| 20260505205919 | 63 | 226 | 1.7 | 4.3 | 0.00 | 0.28 | 0.04 | 78 | 1015.1 |
| 20260505205820 | 63 | 238 | 1.7 | 4.3 | 0.00 | 0.28 | 0.04 | 79 | 1015.0 |
| 20260505205741 | 62 | 207 | 1.7 | 4.3 | 0.00 | 0.28 | 0.04 | 79 | 1015.0 |
| 20260505205720 | 62 | 248 | 1.7 | 4.3 | 0.00 | 0.28 | 0.04 | 79 | 1015.0 |
| 20260505205636 | 62 | 236 | 1.7 | 4.3 | 0.00 | 0.28 | 0.04 | 80 | 1015.1 |
| 20260505205626 | 62 | 207 | 1.7 | 4.3 | 0.00 | 0.28 | 0.04 | 79 | 1015.0 |
| 20260505205415 | 62 | 184 | 1.7 | 4.3 | 0.00 | 0.28 | 0.04 | 79 | 1015.1 |
| 20260505205313 | 62 | 238 | 1.7 | 5.2 | 0.00 | 0.28 | 0.04 | 80 | 1015.1 |
| 20260505205215 | 62 | 160 | 1.7 | 5.2 | 0.00 | 0.28 | 0.04 | 80 | 1015.0 |
| 20260505205113 | 62 | 193 | 1.7 | 5.2 | 0.00 | 0.28 | 0.04 | 80 | 1015.1 |
| 20260505205016 | 62 | 222 | 0.9 | 5.2 | 0.00 | 0.28 | 0.04 | 80 | 1015.1 |
| 20260505204907 | 62 | 222 | 0.9 | 5.2 | 0.00 | 0.28 | 0.04 | 80 | 1015.1 |
| 20260505204808 | 62 | 235 | 0.9 | 5.2 | 0.00 | 0.28 | 0.04 | 80 | 1015.1 |
| 20260505204729 | 62 | 232 | 0.9 | 5.2 | 0.00 | 0.28 | 0.04 | 81 | 1015.1 |
| 20260505204707 | 62 | 141 | 0.9 | 5.2 | 0.00 | 0.28 | 0.04 | 79 | 1015.1 |
| 20260505204624 | 62 | 233 | 0.9 | 5.2 | 0.00 | 0.28 | 0.04 | 80 | 1015.1 |
| 20260505204614 | 62 | 232 | 0.9 | 5.2 | 0.00 | 0.28 | 0.04 | 81 | 1015.1 |
| 20260505204411 | 62 | 232 | 1.7 | 5.2 | 0.00 | 0.28 | 0.04 | 81 | 1015.2 |
| 20260505204305 | 62 | 226 | 1.7 | 5.2 | 0.00 | 0.28 | 0.04 | 82 | 1015.1 |
| 20260505204230 | 62 | 222 | 2.6 | 7.8 | 0.00 | 0.28 | 0.04 | 81 | 1015.1 |
| 20260505204206 | 62 | 215 | 1.7 | 5.2 | 0.00 | 0.28 | 0.04 | 81 | 1015.1 |
| 20260505204119 | 62 | 218 | 2.6 | 7.0 | 0.00 | 0.28 | 0.04 | 81 | 1015.1 |
| 20260505204108 | 62 | 222 | 2.6 | 7.8 | 0.00 | 0.28 | 0.04 | 81 | 1015.1 |
| 20260505203857 | 62 | 248 | 2.6 | 7.8 | 0.00 | 0.28 | 0.04 | 81 | 1015.1 |
| 20260505203758 | 62 | 236 | 3.5 | 7.8 | 0.00 | 0.28 | 0.04 | 81 | 1015.1 |
| 20260505203657 | 62 | 127 | 3.5 | 7.8 | 0.00 | 0.28 | 0.04 | 82 | 1015.1 |
| 20260505203557 | 61 | 238 | 3.5 | 7.8 | 0.00 | 0.28 | 0.04 | 82 | 1015.1 |
| 20260505203457 | 61 | 158 | 3.5 | 7.8 | 0.00 | 0.28 | 0.04 | 82 | 1015.2 |
| 20260505203349 | 61 | 229 | 3.5 | 7.8 | 0.00 | 0.28 | 0.04 | 82 | 1015.2 |
| 20260505203249 | 61 | 246 | 3.5 | 7.8 | 0.00 | 0.28 | 0.04 | 81 | 1015.2 |
| 20260505203149 | 61 | 229 | 2.6 | 7.8 | 0.00 | 0.28 | 0.04 | 81 | 1015.2 |
| 20260505203050 | 61 | 242 | 2.6 | 7.8 | 0.00 | 0.28 | 0.04 | 81 | 1015.1 |
| 20260505202950 | 62 | 217 | 2.6 | 6.1 | 0.00 | 0.28 | 0.04 | 81 | 1015.1 |
| 20260505202844 | 62 | 224 | 2.6 | 6.1 | 0.00 | 0.28 | 0.04 | 81 | 1015.2 |
| 20260505202745 | 62 | 235 | 2.6 | 6.1 | 0.00 | 0.28 | 0.04 | 81 | 1015.1 |
| 20260505202644 | 62 | 216 | 2.6 | 6.1 | 0.00 | 0.28 | 0.04 | 81 | 1015.1 |
| 20260505202543 | 62 | 231 | 2.6 | 6.1 | 0.00 | 0.28 | 0.04 | 82 | 1015.1 |
| 20260505202445 | 62 | 235 | 2.6 | 6.1 | 0.00 | 0.28 | 0.04 | 81 | 1015.1 |
| 20260505202338 | 62 | 186 | 2.6 | 6.1 | 0.00 | 0.28 | 0.04 | 80 | 1015.1 |
| 20260505202238 | 62 | 204 | 2.6 | 6.1 | 0.00 | 0.28 | 0.04 | 81 | 1015.1 |
| 20260505202157 | 62 | 215 | 1.7 | 7.0 | 0.00 | 0.28 | 0.04 | 80 | 1015.1 |
| 20260505202137 | 62 | 241 | 2.6 | 6.1 | 0.00 | 0.28 | 0.04 | 81 | 1015.1 |
| 20260505202055 | 62 | 160 | 2.6 | 7.0 | 0.00 | 0.28 | 0.04 | 80 | 1015.1 |
| 20260505202045 | 62 | 215 | 1.7 | 7.0 | 0.00 | 0.28 | 0.04 | 80 | 1015.1 |
| 20260505201833 | 62 | 214 | 1.7 | 7.0 | 0.00 | 0.28 | 0.04 | 81 | 1015.2 |
| 20260505201734 | 62 | 256 | 1.7 | 7.0 | 0.00 | 0.28 | 0.04 | 81 | 1015.2 |
| 20260505201653 | 62 | 159 | 1.7 | 7.0 | 0.00 | 0.28 | 0.04 | 81 | 1015.2 |
| 20260505201634 | 62 | 179 | 1.7 | 7.0 | 0.00 | 0.28 | 0.04 | 81 | 1015.2 |
| 20260505201547 | 62 | 155 | 2.6 | 7.0 | 0.00 | 0.28 | 0.04 | 81 | 1015.1 |
| 20260505201537 | 62 | 159 | 1.7 | 7.0 | 0.00 | 0.28 | 0.04 | 81 | 1015.2 |
| 20260505201326 | 62 | 250 | 1.7 | 7.0 | 0.00 | 0.28 | 0.04 | 81 | 1015.2 |
| 20260505201227 | 62 | 135 | 1.7 | 7.0 | 0.00 | 0.28 | 0.04 | 80 | 1015.2 |
| 20260505201125 | 62 | 223 | 1.7 | 7.0 | 0.00 | 0.28 | 0.04 | 80 | 1015.1 |
| 20260505201026 | 62 | 238 | 1.7 | 5.2 | 0.00 | 0.28 | 0.04 | 80 | 1015.2 |
| 20260505200927 | 62 | 224 | 1.7 | 5.2 | 0.00 | 0.28 | 0.04 | 80 | 1015.2 |
| 20260505200821 | 62 | 233 | 1.7 | 4.3 | 0.00 | 0.28 | 0.04 | 80 | 1015.2 |
| 20260505200722 | 62 | 195 | 2.6 | 6.1 | 0.00 | 0.28 | 0.04 | 80 | 1015.2 |
| 20260505200621 | 62 | 242 | 2.6 | 6.1 | 0.00 | 0.28 | 0.04 | 80 | 1015.2 |
| 20260505200521 | 62 | 245 | 2.6 | 6.1 | 0.00 | 0.28 | 0.04 | 80 | 1015.2 |
| 20260505200421 | 62 | 260 | 2.6 | 6.1 | 0.00 | 0.28 | 0.04 | 80 | 1015.2 |
| 20260505200313 | 62 | 235 | 2.6 | 6.1 | 0.00 | 0.28 | 0.04 | 81 | 1015.2 |
| 20260505200214 | 62 | 217 | 2.6 | 6.1 | 0.00 | 0.28 | 0.04 | 80 | 1015.2 |
| 20260505200137 | 62 | 235 | 1.7 | 6.1 | 0.00 | 0.28 | 0.04 | 80 | 1015.2 |
| 20260505200114 | 62 | 204 | 1.7 | 6.1 | 0.00 | 0.28 | 0.04 | 80 | 1015.3 |
| 20260505200030 | 62 | 136 | 1.7 | 6.1 | 0.00 | 0.28 | 0.04 | 80 | 1015.2 |
| 20260505200020 | 62 | 235 | 1.7 | 6.1 | 0.00 | 0.28 | 0.04 | 80 | 1015.2 |
| 20260505195814 | 62 | 167 | 1.7 | 6.1 | 0.00 | 0.28 | 0.04 | 79 | 1015.2 |
| 20260505195712 | 62 | 204 | 1.7 | 5.2 | 0.00 | 0.28 | 0.04 | 80 | 1015.3 |
| 20260505195610 | 62 | 217 | 1.7 | 5.2 | 0.00 | 0.28 | 0.04 | 80 | 1015.3 |
| 20260505195509 | 62 | 141 | 1.7 | 5.2 | 0.00 | 0.28 | 0.04 | 80 | 1015.3 |
| 20260505195413 | 62 | 143 | 1.7 | 4.3 | 0.00 | 0.28 | 0.04 | 80 | 1015.3 |
| 20260505195305 | 62 | 118 | 1.7 | 4.3 | 0.00 | 0.28 | 0.04 | 80 | 1015.3 |
| 20260505195202 | 62 | 154 | 1.7 | 4.3 | 0.00 | 0.28 | 0.04 | 80 | 1015.3 |
| 20260505195101 | 62 | 183 | 1.7 | 4.3 | 0.00 | 0.28 | 0.04 | 80 | 1015.3 |
| 20260505195001 | 62 | 221 | 1.7 | 4.3 | 0.00 | 0.28 | 0.04 | 80 | 1015.3 |
| 20260505194904 | 62 | 146 | 1.7 | 4.3 | 0.00 | 0.28 | 0.04 | 80 | 1015.3 |
| 20260505194756 | 62 | 208 | 1.7 | 4.3 | 0.00 | 0.28 | 0.04 | 79 | 1015.3 |
| 20260505194656 | 62 | 244 | 0.9 | 4.3 | 0.00 | 0.28 | 0.04 | 78 | 1015.3 |
| 20260505194556 | 63 | 236 | 0.9 | 4.3 | 0.00 | 0.28 | 0.04 | 79 | 1015.3 |
| 20260505194456 | 63 | 245 | 0.9 | 4.3 | 0.00 | 0.28 | 0.04 | 79 | 1015.3 |
| 20260505194359 | 63 | 160 | 0.9 | 4.3 | 0.00 | 0.28 | 0.04 | 79 | 1015.3 |
| 20260505194253 | 63 | 150 | 0.9 | 4.3 | 0.00 | 0.28 | 0.04 | 78 | 1015.3 |
| 20260505194154 | 62 | 136 | 0.9 | 3.5 | 0.00 | 0.28 | 0.04 | 77 | 1015.3 |
| 20260505194053 | 62 | 124 | 0.9 | 3.5 | 0.00 | 0.28 | 0.04 | 76 | 1015.3 |
| 20260505193951 | 62 | 99 | 0.9 | 3.5 | 0.00 | 0.28 | 0.04 | 76 | 1015.3 |
| 20260505193851 | 62 | 99 | 0.9 | 3.5 | 0.00 | 0.28 | 0.04 | 76 | 1015.3 |
| 20260505193743 | 62 | 124 | 0.9 | 3.5 | 0.00 | 0.28 | 0.04 | 76 | 1015.3 |
| 20260505193644 | 62 | 124 | 0.9 | 3.5 | 0.00 | 0.28 | 0.04 | 75 | 1015.3 |
| 20260505193601 | 62 | 117 | 0.9 | 3.5 | 0.00 | 0.28 | 0.04 | 75 | 1015.2 |
| 20260505193543 | 62 | 124 | 0.9 | 3.5 | 0.00 | 0.28 | 0.04 | 75 | 1015.3 |
| 20260505193503 | 62 | 104 | 0.9 | 3.5 | 0.00 | 0.28 | 0.04 | 75 | 1015.3 |
| 20260505193449 | 62 | 117 | 0.9 | 3.5 | 0.00 | 0.28 | 0.04 | 75 | 1015.2 |
| 20260505193244 | 62 | 108 | 0.9 | 3.5 | 0.00 | 0.28 | 0.04 | 75 | 1015.3 |
| 20260505193141 | 62 | 347 | 0.9 | 3.5 | 0.00 | 0.28 | 0.04 | 75 | 1015.2 |
| 20260505193042 | 62 | 347 | 0.9 | 3.5 | 0.00 | 0.28 | 0.04 | 76 | 1015.3 |
| 20260505192940 | 63 | 346 | 0.9 | 3.5 | 0.00 | 0.28 | 0.04 | 75 | 1015.3 |
| 20260505192839 | 63 | 71 | 0.0 | 2.6 | 0.00 | 0.28 | 0.04 | 76 | 1015.3 |
| 20260505192732 | 63 | 18 | 0.0 | 2.6 | 0.00 | 0.28 | 0.04 | 76 | 1015.3 |
| 20260505192632 | 63 | 15 | 0.0 | 2.6 | 0.00 | 0.28 | 0.04 | 77 | 1015.3 |
| 20260505192532 | 63 | 45 | 0.0 | 1.7 | 0.00 | 0.28 | 0.04 | 76 | 1015.3 |
| 20260505192432 | 63 | 46 | 0.0 | 1.7 | 0.00 | 0.28 | 0.04 | 76 | 1015.3 |
| 20260505192333 | 62 | 95 | 0.0 | 1.7 | 0.00 | 0.28 | 0.04 | 77 | 1015.3 |
| 20260505192227 | 62 | 76 | 0.0 | 2.6 | 0.00 | 0.28 | 0.04 | 77 | 1015.3 |
| 20260505192127 | 62 | 346 | 0.0 | 2.6 | 0.00 | 0.28 | 0.04 | 77 | 1015.3 |
| 20260505192052 | 62 | 314 | 0.0 | 2.6 | 0.00 | 0.28 | 0.04 | 76 | 1015.3 |
| 20260505192027 | 62 | 315 | 0.0 | 2.6 | 0.00 | 0.28 | 0.04 | 76 | 1015.3 |
| 20260505191941 | 62 | 315 | 0.0 | 2.6 | 0.00 | 0.28 | 0.04 | 76 | 1015.3 |
| 20260505191931 | 62 | 314 | 0.0 | 2.6 | 0.00 | 0.28 | 0.04 | 76 | 1015.3 |
| 20260505191726 | 62 | 315 | 0.9 | 2.6 | 0.00 | 0.28 | 0.04 | 77 | 1015.3 |
| 20260505191623 | 62 | 315 | 0.9 | 2.6 | 0.00 | 0.28 | 0.04 | 77 | 1015.3 |
| 20260505191523 | 62 | 315 | 0.9 | 2.6 | 0.00 | 0.28 | 0.04 | 76 | 1015.3 |
| 20260505191421 | 62 | 315 | 0.9 | 2.6 | 0.00 | 0.28 | 0.04 | 77 | 1015.3 |
| 20260505191322 | 62 | 315 | 0.0 | 2.6 | 0.00 | 0.28 | 0.04 | 77 | 1015.3 |
| 20260505191213 | 62 | 311 | 0.0 | 2.6 | 0.00 | 0.28 | 0.04 | 78 | 1015.3 |
| 20260505191114 | 62 | 310 | 0.0 | 2.6 | 0.00 | 0.28 | 0.04 | 78 | 1015.3 |
| 20260505191013 | 62 | 310 | 0.9 | 2.6 | 0.00 | 0.28 | 0.04 | 77 | 1015.3 |
| 20260505190914 | 62 | 311 | 0.9 | 2.6 | 0.00 | 0.28 | 0.04 | 77 | 1015.2 |
| 20260505190815 | 62 | 311 | 0.9 | 2.6 | 0.00 | 0.28 | 0.04 | 76 | 1015.3 |
| 20260505190714 | 62 | 310 | 0.9 | 2.6 | 0.00 | 0.28 | 0.04 | 77 | 1015.2 |
| 20260505190612 | 62 | 314 | 0.9 | 2.6 | 0.00 | 0.28 | 0.04 | 77 | 1015.3 |
| 20260505190512 | 62 | 314 | 0.9 | 2.6 | 0.00 | 0.28 | 0.04 | 79 | 1015.3 |
| 20260505190409 | 62 | 314 | 0.9 | 2.6 | 0.00 | 0.28 | 0.04 | 77 | 1015.3 |
| 20260505190309 | 62 | 314 | 0.9 | 2.6 | 0.00 | 0.28 | 0.04 | 77 | 1015.3 |
| 20260505190207 | 62 | 314 | 0.9 | 2.6 | 0.00 | 0.28 | 0.04 | 76 | 1015.3 |
| 20260505190106 | 62 | 314 | 0.9 | 2.6 | 0.00 | 0.28 | 0.04 | 76 | 1015.3 |
| 20260505190006 | 62 | 328 | 0.9 | 4.3 | 0.00 | 0.28 | 0.04 | 76 | 1015.3 |
| 20260505185903 | 63 | 326 | 0.9 | 4.3 | 0.00 | 0.28 | 0.04 | 76 | 1015.2 |
| 20260505185804 | 63 | 346 | 0.9 | 4.3 | 0.00 | 0.28 | 0.04 | 76 | 1015.3 |
| 20260505185701 | 63 | 335 | 0.9 | 4.3 | 0.00 | 0.28 | 0.04 | 76 | 1015.2 |
| 20260505185600 | 63 | 342 | 0.9 | 4.3 | 0.00 | 0.28 | 0.04 | 77 | 1015.2 |
| 20260505185500 | 63 | 328 | 0.9 | 4.3 | 0.00 | 0.28 | 0.04 | 76 | 1015.3 |
| 20260505185358 | 63 | 29 | 0.9 | 4.3 | 0.00 | 0.28 | 0.04 | 75 | 1015.2 |
| 20260505185258 | 63 | 15 | 0.9 | 4.3 | 0.00 | 0.28 | 0.04 | 75 | 1015.2 |
| 20260505185152 | 63 | 34 | 0.9 | 4.3 | 0.00 | 0.28 | 0.04 | 75 | 1015.2 |
| 20260505185051 | 63 | 0 | 0.9 | 4.3 | 0.00 | 0.28 | 0.04 | 75 | 1015.2 |
| 20260505184951 | 64 | 6 | 0.9 | 3.5 | 0.00 | 0.28 | 0.04 | 74 | 1015.2 |
| 20260505184852 | 64 | 343 | 0.9 | 3.5 | 0.00 | 0.28 | 0.04 | 75 | 1015.2 |
| 20260505184751 | 63 | 343 | 0.9 | 3.5 | 0.00 | 0.28 | 0.04 | 75 | 1015.2 |
| 20260505184645 | 63 | 50 | 0.9 | 3.5 | 0.00 | 0.28 | 0.04 | 76 | 1015.2 |
| 20260505184545 | 63 | 49 | 0.9 | 3.5 | 0.00 | 0.28 | 0.04 | 75 | 1015.2 |
| 20260505184445 | 63 | 61 | 0.9 | 3.5 | 0.00 | 0.28 | 0.04 | 76 | 1015.1 |
| 20260505184346 | 63 | 127 | 0.9 | 3.5 | 0.00 | 0.28 | 0.04 | 77 | 1015.1 |
| 20260505184247 | 62 | 127 | 0.9 | 3.5 | 0.00 | 0.28 | 0.04 | 76 | 1015.1 |
| 20260505184140 | 62 | 127 | 1.7 | 3.5 | 0.00 | 0.28 | 0.04 | 77 | 1015.1 |
| 20260505184039 | 62 | 158 | 1.7 | 3.5 | 0.00 | 0.28 | 0.04 | 78 | 1015.1 |
| 20260505183939 | 62 | 155 | 1.7 | 4.3 | 0.00 | 0.28 | 0.04 | 79 | 1015.1 |
| 20260505183840 | 62 | 68 | 1.7 | 4.3 | 0.00 | 0.28 | 0.04 | 77 | 1015.1 |
| 20260505183738 | 62 | 71 | 1.7 | 4.3 | 0.00 | 0.28 | 0.04 | 78 | 1015.1 |
| 20260505183634 | 62 | 143 | 1.7 | 4.3 | 0.00 | 0.28 | 0.04 | 78 | 1015.2 |
| 20260505183531 | 62 | 121 | 1.7 | 4.3 | 0.00 | 0.28 | 0.04 | 78 | 1015.1 |
| 20260505183431 | 62 | 186 | 1.7 | 4.3 | 0.00 | 0.28 | 0.04 | 78 | 1015.2 |
| 20260505183332 | 61 | 126 | 1.7 | 4.3 | 0.00 | 0.28 | 0.04 | 78 | 1015.2 |
| 20260505183234 | 62 | 111 | 0.9 | 4.3 | 0.00 | 0.28 | 0.04 | 78 | 1015.2 |
| 20260505183128 | 62 | 45 | 0.9 | 4.3 | 0.00 | 0.28 | 0.04 | 77 | 1015.2 |
| 20260505183027 | 62 | 95 | 0.9 | 4.3 | 0.00 | 0.28 | 0.04 | 77 | 1015.2 |
| 20260505182927 | 62 | 142 | 0.9 | 3.5 | 0.00 | 0.28 | 0.04 | 78 | 1015.2 |
| 20260505182828 | 62 | 143 | 0.9 | 3.5 | 0.00 | 0.28 | 0.04 | 78 | 1015.2 |
| 20260505182728 | 62 | 205 | 0.9 | 3.5 | 0.00 | 0.28 | 0.04 | 78 | 1015.2 |
| 20260505182624 | 62 | 135 | 0.9 | 3.5 | 0.00 | 0.28 | 0.04 | 78 | 1015.2 |
| 20260505182524 | 62 | 139 | 0.9 | 3.5 | 0.00 | 0.28 | 0.04 | 78 | 1015.2 |
| 20260505182423 | 62 | 104 | 0.9 | 3.5 | 0.00 | 0.28 | 0.04 | 78 | 1015.2 |
| 20260505182321 | 62 | 104 | 0.9 | 3.5 | 0.00 | 0.28 | 0.04 | 78 | 1015.2 |
| 20260505182221 | 62 | 150 | 0.9 | 3.5 | 0.00 | 0.28 | 0.04 | 78 | 1015.2 |
| 20260505182115 | 62 | 169 | 0.9 | 3.5 | 0.00 | 0.28 | 0.04 | 78 | 1015.2 |
| 20260505182014 | 62 | 103 | 0.0 | 1.7 | 0.00 | 0.28 | 0.04 | 78 | 1015.2 |
| 20260505181913 | 62 | 231 | 0.9 | 1.7 | 0.00 | 0.28 | 0.04 | 78 | 1015.2 |
| 20260505181814 | 62 | 167 | 0.9 | 1.7 | 0.00 | 0.28 | 0.04 | 79 | 1015.2 |
| 20260505181716 | 62 | 232 | 0.9 | 2.6 | 0.00 | 0.28 | 0.04 | 78 | 1015.2 |
| 20260505181610 | 62 | 243 | 0.9 | 2.6 | 0.00 | 0.28 | 0.04 | 78 | 1015.2 |
| 20260505181510 | 62 | 233 | 0.9 | 2.6 | 0.00 | 0.28 | 0.04 | 80 | 1015.2 |
| 20260505181431 | 62 | 243 | 0.9 | 2.6 | 0.00 | 0.28 | 0.04 | 77 | 1015.1 |
| 20260505181409 | 62 | 233 | 0.9 | 2.6 | 0.00 | 0.28 | 0.04 | 78 | 1015.2 |
| 20260505181325 | 62 | 233 | 0.9 | 2.6 | 0.00 | 0.28 | 0.04 | 78 | 1015.1 |
| 20260505181314 | 62 | 243 | 0.9 | 2.6 | 0.00 | 0.28 | 0.04 | 77 | 1015.1 |
| 20260505181101 | 62 | 236 | 0.9 | 2.6 | 0.00 | 0.28 | 0.04 | 78 | 1015.1 |
| 20260505181002 | 62 | 197 | 0.9 | 2.6 | 0.00 | 0.28 | 0.04 | 78 | 1015.1 |
| 20260505180901 | 62 | 163 | 0.9 | 2.6 | 0.00 | 0.28 | 0.04 | 78 | 1015.1 |
| 20260505180801 | 62 | 217 | 0.0 | 2.6 | 0.00 | 0.28 | 0.04 | 79 | 1015.1 |
| 20260505180705 | 61 | 27 | 0.9 | 2.6 | 0.00 | 0.28 | 0.04 | 78 | 1015.1 |
| 20260505180557 | 61 | 26 | 0.9 | 2.6 | 0.00 | 0.28 | 0.04 | 78 | 1015.1 |
| 20260505180455 | 61 | 26 | 0.9 | 3.5 | 0.00 | 0.28 | 0.04 | 77 | 1015.0 |
| 20260505180359 | 61 | 27 | 0.9 | 3.5 | 0.00 | 0.28 | 0.04 | 77 | 1015.0 |
| 20260505180255 | 61 | 26 | 0.9 | 3.5 | 0.00 | 0.28 | 0.04 | 78 | 1015.0 |
| 20260505180158 | 61 | 337 | 0.9 | 3.5 | 0.00 | 0.28 | 0.04 | 79 | 1015.0 |
| 20260505180049 | 61 | 338 | 0.9 | 3.5 | 0.00 | 0.28 | 0.04 | 81 | 1015.0 |
| 20260505175950 | 61 | 338 | 0.9 | 3.5 | 0.00 | 0.28 | 0.04 | 81 | 1015.0 |
| 20260505175850 | 61 | 108 | 1.7 | 3.5 | 0.00 | 0.28 | 0.04 | 81 | 1015.0 |
| 20260505175749 | 61 | 142 | 0.9 | 3.5 | 0.00 | 0.28 | 0.04 | 81 | 1015.0 |
| 20260505175652 | 61 | 141 | 0.9 | 3.5 | 0.00 | 0.28 | 0.04 | 82 | 1015.1 |
| 20260505175543 | 60 | 146 | 0.9 | 3.5 | 0.00 | 0.28 | 0.04 | 84 | 1015.0 |
| 20260505175444 | 60 | 143 | 0.9 | 2.6 | 0.00 | 0.28 | 0.04 | 84 | 1015.0 |
| 20260505175343 | 60 | 72 | 0.9 | 3.5 | 0.00 | 0.28 | 0.04 | 84 | 1015.0 |
| 20260505175244 | 60 | 149 | 0.9 | 3.5 | 0.00 | 0.28 | 0.04 | 84 | 1015.0 |
| 20260505175146 | 59 | 139 | 1.7 | 4.3 | 0.00 | 0.28 | 0.04 | 84 | 1015.0 |
| 20260505175041 | 59 | 103 | 1.7 | 4.3 | 0.00 | 0.28 | 0.04 | 85 | 1015.0 |
| 20260505174941 | 59 | 151 | 1.7 | 4.3 | 0.00 | 0.28 | 0.04 | 85 | 1015.0 |
| 20260505174841 | 59 | 158 | 1.7 | 4.3 | 0.00 | 0.28 | 0.04 | 85 | 1015.0 |
| 20260505174739 | 59 | 158 | 1.7 | 4.3 | 0.00 | 0.28 | 0.04 | 85 | 1015.0 |
| 20260505174640 | 59 | 217 | 1.7 | 4.3 | 0.00 | 0.28 | 0.04 | 85 | 1015.0 |
| 20260505174531 | 58 | 198 | 1.7 | 4.3 | 0.00 | 0.28 | 0.04 | 85 | 1015.0 |
| 20260505174432 | 58 | 225 | 1.7 | 4.3 | 0.00 | 0.28 | 0.04 | 86 | 1015.0 |
| 20260505174401 | 58 | 144 | 0.9 | 3.5 | 0.00 | 0.28 | 0.04 | 86 | 1015.1 |
| 20260505174332 | 58 | 194 | 1.7 | 4.3 | 0.00 | 0.28 | 0.04 | 87 | 1015.0 |
| 20260505174248 | 58 | 145 | 1.7 | 3.5 | 0.00 | 0.28 | 0.04 | 87 | 1015.1 |
| 20260505174238 | 58 | 144 | 0.9 | 3.5 | 0.00 | 0.28 | 0.04 | 86 | 1015.1 |
| 20260505174026 | 58 | 120 | 0.9 | 3.5 | 0.00 | 0.28 | 0.04 | 86 | 1015.1 |
| 20260505173925 | 58 | 126 | 0.9 | 3.5 | 0.00 | 0.28 | 0.04 | 86 | 1015.1 |
| 20260505173848 | 58 | 193 | 0.9 | 3.5 | 0.00 | 0.28 | 0.04 | 86 | 1015.0 |
| 20260505173825 | 58 | 226 | 0.9 | 3.5 | 0.00 | 0.28 | 0.04 | 86 | 1015.1 |
| 20260505173741 | 58 | 123 | 0.9 | 3.5 | 0.00 | 0.28 | 0.04 | 86 | 1015.1 |
| 20260505173731 | 58 | 193 | 0.9 | 3.5 | 0.00 | 0.28 | 0.04 | 86 | 1015.0 |
| 20260505173521 | 58 | 158 | 0.9 | 3.5 | 0.00 | 0.28 | 0.04 | 87 | 1015.1 |
| 20260505173419 | 58 | 142 | 0.9 | 3.5 | 0.00 | 0.28 | 0.04 | 87 | 1015.1 |
| 20260505173320 | 58 | 143 | 0.9 | 3.5 | 0.00 | 0.28 | 0.04 | 87 | 1015.0 |
| 20260505173220 | 58 | 140 | 0.9 | 3.5 | 0.00 | 0.28 | 0.04 | 88 | 1015.1 |
| 20260505173123 | 58 | 217 | 0.9 | 3.5 | 0.00 | 0.28 | 0.04 | 88 | 1015.1 |
| 20260505173014 | 58 | 144 | 0.9 | 3.5 | 0.00 | 0.28 | 0.04 | 88 | 1015.0 |
| 20260505172914 | 58 | 162 | 0.9 | 3.5 | 0.00 | 0.28 | 0.04 | 88 | 1015.0 |
| 20260505172813 | 58 | 153 | 1.7 | 3.5 | 0.00 | 0.28 | 0.04 | 88 | 1015.1 |
| 20260505172713 | 57 | 153 | 1.7 | 3.5 | 0.00 | 0.28 | 0.04 | 87 | 1015.0 |
| 20260505172618 | 58 | 143 | 1.7 | 3.5 | 0.00 | 0.28 | 0.04 | 88 | 1015.1 |
| 20260505172510 | 57 | 95 | 1.7 | 3.5 | 0.00 | 0.28 | 0.04 | 88 | 1015.1 |
| 20260505172408 | 57 | 110 | 1.7 | 4.3 | 0.00 | 0.28 | 0.04 | 88 | 1015.1 |
| 20260505172307 | 57 | 148 | 1.7 | 4.3 | 0.00 | 0.28 | 0.04 | 88 | 1015.0 |
| 20260505172207 | 57 | 124 | 1.7 | 4.3 | 0.00 | 0.28 | 0.04 | 88 | 1015.0 |
| 20260505172110 | 57 | 132 | 1.7 | 4.3 | 0.00 | 0.28 | 0.04 | 89 | 1015.0 |
| 20260505172004 | 57 | 138 | 1.7 | 4.3 | 0.00 | 0.28 | 0.04 | 88 | 1015.0 |
| 20260505171901 | 57 | 215 | 1.7 | 4.3 | 0.00 | 0.28 | 0.04 | 88 | 1015.0 |
| 20260505171802 | 57 | 224 | 0.9 | 4.3 | 0.00 | 0.28 | 0.04 | 88 | 1015.0 |
| 20260505171702 | 57 | 210 | 0.9 | 4.3 | 0.00 | 0.28 | 0.04 | 89 | 1015.0 |
| 20260505171603 | 57 | 160 | 0.9 | 4.3 | 0.00 | 0.28 | 0.04 | 89 | 1014.9 |
| 20260505171457 | 57 | 149 | 0.9 | 4.3 | 0.00 | 0.28 | 0.04 | 89 | 1015.0 |
| 20260505171359 | 57 | 188 | 0.9 | 4.3 | 0.00 | 0.28 | 0.04 | 89 | 1015.0 |
| 20260505171257 | 57 | 212 | 0.9 | 4.3 | 0.00 | 0.28 | 0.04 | 89 | 1015.0 |
| 20260505171157 | 57 | 198 | 0.9 | 4.3 | 0.00 | 0.28 | 0.04 | 88 | 1015.0 |
| 20260505171057 | 57 | 245 | 0.9 | 4.3 | 0.00 | 0.28 | 0.04 | 89 | 1014.9 |
| 20260505170953 | 57 | 262 | 0.9 | 4.3 | 0.00 | 0.28 | 0.04 | 89 | 1014.9 |
| 20260505170854 | 57 | 210 | 0.9 | 4.3 | 0.00 | 0.28 | 0.04 | 89 | 1015.0 |
| 20260505170753 | 57 | 210 | 1.7 | 4.3 | 0.00 | 0.28 | 0.04 | 90 | 1014.9 |
| 20260505170652 | 57 | 203 | 1.7 | 4.3 | 0.00 | 0.28 | 0.04 | 89 | 1015.0 |
| 20260505170552 | 57 | 132 | 0.9 | 4.3 | 0.00 | 0.28 | 0.04 | 89 | 1014.9 |
| 20260505170443 | 57 | 217 | 0.9 | 3.5 | 0.00 | 0.28 | 0.04 | 90 | 1014.9 |
| 20260505170344 | 57 | 215 | 0.9 | 3.5 | 0.00 | 0.28 | 0.04 | 90 | 1014.9 |
| 20260505170318 | 57 | 128 | 1.7 | 3.5 | 0.00 | 0.28 | 0.04 | 90 | 1014.9 |
| 20260505170243 | 57 | 165 | 0.9 | 3.5 | 0.00 | 0.28 | 0.04 | 90 | 1014.9 |
| 20260505170214 | 57 | 125 | 0.9 | 3.5 | 0.00 | 0.28 | 0.04 | 90 | 1014.9 |
| 20260505170204 | 57 | 128 | 1.7 | 3.5 | 0.00 | 0.28 | 0.04 | 90 | 1014.9 |
| 20260505165937 | 57 | 211 | 1.7 | 6.1 | 0.00 | 0.28 | 0.04 | 90 | 1015.0 |
| 20260505165838 | 57 | 163 | 1.7 | 6.1 | 0.00 | 0.28 | 0.04 | 90 | 1014.9 |
| 20260505165758 | 57 | 116 | 1.7 | 6.1 | 0.00 | 0.28 | 0.04 | 90 | 1014.9 |
| 20260505165738 | 57 | 153 | 1.7 | 6.1 | 0.00 | 0.28 | 0.04 | 90 | 1014.9 |
| 20260505165655 | 57 | 146 | 1.7 | 6.1 | 0.00 | 0.28 | 0.04 | 90 | 1015.0 |
| 20260505165643 | 57 | 116 | 1.7 | 6.1 | 0.00 | 0.28 | 0.04 | 90 | 1014.9 |
| 20260505165432 | 57 | 217 | 1.7 | 6.1 | 0.00 | 0.28 | 0.04 | 90 | 1014.9 |
| 20260505165332 | 57 | 143 | 1.7 | 6.1 | 0.00 | 0.28 | 0.04 | 90 | 1015.0 |
| 20260505165232 | 57 | 233 | 1.7 | 6.1 | 0.00 | 0.28 | 0.04 | 90 | 1015.0 |
| 20260505165132 | 57 | 195 | 1.7 | 6.1 | 0.00 | 0.28 | 0.04 | 90 | 1015.0 |
| 20260505165033 | 57 | 141 | 1.7 | 6.1 | 0.00 | 0.28 | 0.04 | 90 | 1015.0 |
| 20260505164930 | 57 | 218 | 0.9 | 5.2 | 0.00 | 0.28 | 0.04 | 90 | 1015.0 |
| 20260505164830 | 57 | 217 | 0.9 | 3.5 | 0.00 | 0.28 | 0.04 | 91 | 1015.0 |
| 20260505164728 | 57 | 146 | 1.7 | 3.5 | 0.00 | 0.28 | 0.04 | 91 | 1015.0 |
| 20260505164627 | 57 | 145 | 1.7 | 4.3 | 0.00 | 0.28 | 0.04 | 91 | 1015.0 |
| 20260505164528 | 57 | 119 | 1.7 | 4.3 | 0.00 | 0.28 | 0.04 | 91 | 1015.0 |
| 20260505164419 | 57 | 141 | 1.7 | 4.3 | 0.00 | 0.28 | 0.04 | 92 | 1015.0 |
| 20260505164319 | 56 | 125 | 1.7 | 4.3 | 0.00 | 0.28 | 0.04 | 91 | 1014.9 |
| 20260505164220 | 56 | 152 | 1.7 | 5.2 | 0.00 | 0.28 | 0.04 | 91 | 1015.0 |
| 20260505164120 | 56 | 141 | 1.7 | 5.2 | 0.00 | 0.28 | 0.04 | 91 | 1015.0 |
| 20260505164022 | 56 | 202 | 1.7 | 5.2 | 0.00 | 0.28 | 0.04 | 91 | 1015.0 |
| 20260505163913 | 56 | 139 | 1.7 | 5.2 | 0.00 | 0.28 | 0.04 | 91 | 1014.9 |
| 20260505163814 | 56 | 120 | 1.7 | 5.2 | 0.00 | 0.28 | 0.04 | 92 | 1015.0 |
| 20260505163713 | 56 | 117 | 1.7 | 5.2 | 0.00 | 0.28 | 0.04 | 92 | 1014.9 |
| 20260505163613 | 56 | 119 | 1.7 | 5.2 | 0.00 | 0.28 | 0.04 | 91 | 1014.9 |
| 20260505163514 | 56 | 181 | 1.7 | 5.2 | 0.00 | 0.28 | 0.04 | 91 | 1014.9 |
| 20260505163410 | 56 | 121 | 1.7 | 5.2 | 0.00 | 0.28 | 0.04 | 91 | 1015.0 |
| 20260505163308 | 56 | 129 | 1.7 | 5.2 | 0.00 | 0.28 | 0.04 | 91 | 1014.9 |
| 20260505163207 | 56 | 141 | 1.7 | 4.3 | 0.00 | 0.28 | 0.04 | 91 | 1014.9 |
| 20260505163107 | 56 | 179 | 1.7 | 4.3 | 0.00 | 0.28 | 0.04 | 92 | 1014.9 |
| 20260505163010 | 56 | 163 | 0.9 | 4.3 | 0.00 | 0.28 | 0.04 | 92 | 1014.9 |
| 20260505162903 | 56 | 133 | 0.9 | 4.3 | 0.00 | 0.28 | 0.04 | 92 | 1014.9 |
| 20260505162803 | 56 | 129 | 0.9 | 4.3 | 0.00 | 0.28 | 0.04 | 92 | 1014.9 |
| 20260505162704 | 56 | 145 | 0.9 | 4.3 | 0.00 | 0.28 | 0.04 | 92 | 1014.9 |
| 20260505162604 | 56 | 224 | 0.9 | 4.3 | 0.00 | 0.28 | 0.04 | 92 | 1014.9 |
| 20260505162503 | 56 | 197 | 0.9 | 4.3 | 0.00 | 0.28 | 0.04 | 92 | 1014.9 |
| 20260505162357 | 56 | 165 | 0.9 | 4.3 | 0.00 | 0.28 | 0.04 | 92 | 1014.9 |
| 20260505162255 | 56 | 165 | 0.9 | 4.3 | 0.00 | 0.28 | 0.04 | 92 | 1014.9 |
| 20260505162156 | 56 | 236 | 0.9 | 4.3 | 0.00 | 0.28 | 0.04 | 92 | 1014.9 |
| 20260505162056 | 56 | 241 | 0.9 | 4.3 | 0.00 | 0.28 | 0.04 | 92 | 1014.9 |
| 20260505161958 | 56 | 214 | 0.9 | 4.3 | 0.00 | 0.28 | 0.04 | 92 | 1014.9 |
| 20260505161852 | 56 | 120 | 0.9 | 4.3 | 0.00 | 0.28 | 0.04 | 92 | 1014.9 |
| 20260505161749 | 56 | 144 | 0.9 | 3.5 | 0.00 | 0.28 | 0.04 | 92 | 1014.9 |
| 20260505161650 | 56 | 158 | 0.9 | 3.5 | 0.00 | 0.28 | 0.04 | 93 | 1014.9 |
| 20260505161549 | 56 | 146 | 0.9 | 3.5 | 0.00 | 0.28 | 0.04 | 93 | 1014.9 |
| 20260505161451 | 56 | 142 | 0.9 | 3.5 | 0.00 | 0.28 | 0.04 | 93 | 1014.9 |
| 20260505161345 | 56 | 142 | 0.9 | 3.5 | 0.00 | 0.28 | 0.04 | 93 | 1014.9 |
| 20260505161246 | 56 | 131 | 0.9 | 3.5 | 0.00 | 0.28 | 0.04 | 93 | 1014.9 |
| 20260505161145 | 56 | 181 | 0.9 | 3.5 | 0.00 | 0.28 | 0.04 | 93 | 1014.9 |
| 20260505161045 | 56 | 134 | 0.9 | 3.5 | 0.00 | 0.28 | 0.04 | 93 | 1014.8 |
| 20260505160958 | 56 | 151 | 0.9 | 3.5 | 0.00 | 0.28 | 0.04 | 93 | 1014.9 |
| 20260505160839 | 55 | 136 | 0.9 | 3.5 | 0.00 | 0.28 | 0.04 | 93 | 1014.9 |
| 20260505160738 | 56 | 131 | 0.9 | 3.5 | 0.00 | 0.28 | 0.04 | 93 | 1014.9 |
| 20260505160638 | 55 | 108 | 0.9 | 3.5 | 0.00 | 0.28 | 0.04 | 93 | 1014.9 |
| 20260505160537 | 55 | 210 | 0.9 | 3.5 | 0.00 | 0.28 | 0.04 | 93 | 1014.9 |
| 20260505160439 | 55 | 150 | 0.9 | 2.6 | 0.00 | 0.28 | 0.04 | 93 | 1014.9 |
| 20260505160331 | 55 | 162 | 0.9 | 2.6 | 0.00 | 0.28 | 0.04 | 93 | 1014.9 |
| 20260505160232 | 55 | 143 | 0.9 | 2.6 | 0.00 | 0.28 | 0.04 | 93 | 1014.8 |
| 20260505160131 | 55 | 143 | 0.9 | 2.6 | 0.00 | 0.28 | 0.04 | 93 | 1014.9 |
| 20260505153258 | 54 | 174 | 0.9 | 5.2 | 0.00 | 0.28 | 0.04 | 93 | 1014.8 |
| 20260505153156 | 54 | 134 | 0.9 | 5.2 | 0.00 | 0.28 | 0.04 | 93 | 1014.8 |
| 20260505153055 | 54 | 134 | 0.9 | 5.2 | 0.00 | 0.28 | 0.04 | 93 | 1014.8 |
| 20260505152955 | 54 | 151 | 0.9 | 5.2 | 0.00 | 0.28 | 0.04 | 93 | 1014.8 |
| 20260505152857 | 54 | 124 | 0.9 | 5.2 | 0.00 | 0.28 | 0.04 | 93 | 1014.8 |
| 20260505152751 | 54 | 124 | 1.7 | 5.2 | 0.00 | 0.28 | 0.04 | 93 | 1014.7 |
| 20260505152652 | 54 | 146 | 1.7 | 5.2 | 0.00 | 0.28 | 0.04 | 93 | 1014.7 |
| 20260505152552 | 54 | 129 | 1.7 | 5.2 | 0.00 | 0.28 | 0.04 | 93 | 1014.7 |
| 20260505152451 | 54 | 134 | 0.9 | 5.2 | 0.00 | 0.28 | 0.04 | 93 | 1014.7 |
| 20260505152356 | 54 | 134 | 1.7 | 5.2 | 0.00 | 0.28 | 0.04 | 93 | 1014.7 |
| 20260505152244 | 54 | 129 | 0.9 | 5.2 | 0.00 | 0.28 | 0.04 | 93 | 1014.7 |
| 20260505152143 | 54 | 131 | 0.9 | 5.2 | 0.00 | 0.28 | 0.04 | 93 | 1014.6 |
| 20260505152043 | 54 | 179 | 0.9 | 5.2 | 0.00 | 0.28 | 0.04 | 93 | 1014.6 |
| 20260505151944 | 54 | 131 | 0.9 | 5.2 | 0.00 | 0.29 | 0.04 | 93 | 1014.7 |
| 20260505151846 | 54 | 162 | 0.9 | 4.3 | 0.00 | 0.29 | 0.04 | 93 | 1014.7 |
| 20260505151737 | 54 | 150 | 0.9 | 3.5 | 0.00 | 0.29 | 0.04 | 93 | 1014.6 |
| 20260505151638 | 54 | 117 | 0.9 | 3.5 | 0.00 | 0.29 | 0.04 | 93 | 1014.6 |
| 20260505151538 | 54 | 196 | 0.9 | 3.5 | 0.00 | 0.29 | 0.04 | 93 | 1014.6 |
| 20260505151437 | 54 | 163 | 0.9 | 4.3 | 0.00 | 0.29 | 0.04 | 93 | 1014.6 |
| 20260505151338 | 54 | 138 | 0.9 | 4.3 | 0.00 | 0.29 | 0.04 | 93 | 1014.6 |
| 20260505151236 | 54 | 121 | 0.9 | 4.3 | 0.00 | 0.29 | 0.04 | 93 | 1014.6 |
| 20260505151135 | 54 | 203 | 1.7 | 4.3 | 0.00 | 0.29 | 0.04 | 93 | 1014.6 |
| 20260505151036 | 54 | 134 | 1.7 | 4.3 | 0.00 | 0.29 | 0.04 | 93 | 1014.6 |
| 20260505150934 | 54 | 146 | 1.7 | 4.3 | 0.00 | 0.29 | 0.04 | 93 | 1014.6 |
| 20260505150832 | 54 | 134 | 0.9 | 4.3 | 0.00 | 0.29 | 0.04 | 93 | 1014.6 |
| 20260505150728 | 54 | 113 | 0.9 | 4.3 | 0.00 | 0.29 | 0.04 | 93 | 1014.6 |
| 20260505150626 | 54 | 139 | 0.9 | 4.3 | 0.00 | 0.29 | 0.04 | 93 | 1014.6 |
| 20260505150526 | 54 | 135 | 0.9 | 4.3 | 0.00 | 0.29 | 0.04 | 92 | 1014.6 |
| 20260505150426 | 54 | 150 | 0.9 | 2.6 | 0.00 | 0.29 | 0.04 | 92 | 1014.5 |
| 20260505150339 | 54 | 101 | 0.9 | 4.3 | 0.00 | 0.29 | 0.04 | 92 | 1014.5 |
| 20260505150222 | 54 | 147 | 0.9 | 4.3 | 0.00 | 0.29 | 0.04 | 92 | 1014.5 |
| 20260505150119 | 53 | 150 | 0.9 | 4.3 | 0.00 | 0.29 | 0.04 | 92 | 1014.5 |
| 20260505140616 | 52 | 136 | 0.9 | 2.6 | 0.00 | 0.29 | 0.04 | 92 | 1014.2 |
| 20260505140514 | 52 | 135 | 0.0 | 2.6 | 0.00 | 0.29 | 0.04 | 91 | 1014.2 |
| 20260505140414 | 52 | 139 | 0.0 | 2.6 | 0.00 | 0.29 | 0.04 | 91 | 1014.2 |
| 20260505140313 | 52 | 128 | 0.9 | 2.6 | 0.00 | 0.29 | 0.04 | 91 | 1014.2 |
| 20260505140218 | 52 | 129 | 0.9 | 2.6 | 0.00 | 0.29 | 0.04 | 92 | 1014.2 |
| 20260505140107 | 52 | 104 | 0.9 | 2.6 | 0.00 | 0.29 | 0.04 | 92 | 1014.2 |
| 20260505130301 | 52 | 127 | 1.7 | 5.2 | 0.00 | 0.29 | 0.04 | 91 | 1013.8 |
| 20260505130201 | 52 | 157 | 1.7 | 5.2 | 0.00 | 0.29 | 0.04 | 91 | 1013.9 |
| 20260505130111 | 52 | 134 | 1.7 | 5.2 | 0.00 | 0.29 | 0.04 | 91 | 1013.8 |
| 20260505124945 | 52 | 129 | 0.9 | 3.5 | 0.00 | 0.29 | 0.04 | 91 | 1013.8 |
| 20260505124844 | 52 | 150 | 0.9 | 3.5 | 0.00 | 0.29 | 0.04 | 91 | 1013.8 |
| 20260505124744 | 52 | 124 | 0.9 | 3.5 | 0.00 | 0.29 | 0.04 | 91 | 1013.8 |
| 20260505124643 | 52 | 123 | 0.9 | 3.5 | 0.00 | 0.29 | 0.04 | 91 | 1013.8 |
| 20260505124544 | 52 | 117 | 0.9 | 3.5 | 0.00 | 0.29 | 0.04 | 91 | 1013.7 |
| 20260505124439 | 52 | 136 | 0.9 | 3.5 | 0.00 | 0.29 | 0.04 | 91 | 1013.7 |
| 20260505124340 | 52 | 136 | 0.9 | 3.5 | 0.00 | 0.29 | 0.04 | 91 | 1013.7 |
| 20260505124300 | 52 | 141 | 0.0 | 1.7 | 0.00 | 0.29 | 0.04 | 91 | 1013.7 |
| 20260505124239 | 52 | 137 | 0.9 | 3.5 | 0.00 | 0.29 | 0.04 | 91 | 1013.7 |
| 20260505124154 | 52 | 176 | 0.0 | 3.5 | 0.00 | 0.29 | 0.04 | 91 | 1013.7 |
| 20260505124144 | 52 | 141 | 0.0 | 1.7 | 0.00 | 0.29 | 0.04 | 91 | 1013.7 |
| 20260505123938 | 52 | 141 | 0.0 | 1.7 | 0.00 | 0.29 | 0.04 | 91 | 1013.7 |
| 20260505123835 | 52 | 137 | 0.0 | 1.7 | 0.00 | 0.29 | 0.04 | 91 | 1013.7 |
| 20260505123757 | 52 | 139 | 0.0 | 1.7 | 0.00 | 0.29 | 0.04 | 91 | 1013.6 |
| 20260505123735 | 52 | 134 | 0.0 | 1.7 | 0.00 | 0.29 | 0.04 | 91 | 1013.6 |
| 20260505123649 | 52 | 139 | 0.0 | 1.7 | 0.00 | 0.29 | 0.04 | 91 | 1013.6 |
| 20260505123639 | 52 | 139 | 0.0 | 1.7 | 0.00 | 0.29 | 0.04 | 91 | 1013.6 |
| 20260505123508 | 52 | 136 | 0.9 | 2.6 | 0.00 | 0.29 | 0.04 | 91 | 1013.6 |
| 20260505123431 | 52 | 180 | 0.0 | 2.6 | 0.00 | 0.29 | 0.04 | 91 | 1013.6 |
| 20260505123356 | 52 | 205 | 0.0 | 2.6 | 0.00 | 0.29 | 0.04 | 91 | 1013.7 |
| 20260505123227 | 52 | 173 | 0.9 | 2.6 | 0.00 | 0.29 | 0.04 | 91 | 1013.6 |
| 20260505123141 | 52 | 134 | 0.9 | 2.6 | 0.00 | 0.29 | 0.04 | 91 | 1013.6 |
| 20260505123131 | 52 | 136 | 0.9 | 2.6 | 0.00 | 0.29 | 0.04 | 91 | 1013.6 |
| 20260505122921 | 52 | 137 | 0.9 | 2.6 | 0.00 | 0.29 | 0.04 | 91 | 1013.6 |
| 20260505122819 | 52 | 127 | 0.9 | 2.6 | 0.00 | 0.29 | 0.04 | 91 | 1013.7 |
| 20260505122749 | 52 | 148 | 0.9 | 3.5 | 0.00 | 0.29 | 0.04 | 91 | 1013.7 |
| 20260505122720 | 52 | 224 | 0.9 | 3.5 | 0.00 | 0.29 | 0.04 | 91 | 1013.7 |
| 20260505122636 | 52 | 131 | 0.9 | 3.5 | 0.00 | 0.29 | 0.04 | 91 | 1013.7 |
| 20260505122625 | 52 | 148 | 0.9 | 3.5 | 0.00 | 0.29 | 0.04 | 91 | 1013.7 |
| 20260505122414 | 52 | 141 | 0.9 | 3.5 | 0.00 | 0.29 | 0.04 | 91 | 1013.7 |
| 20260505122314 | 52 | 134 | 0.9 | 3.5 | 0.00 | 0.29 | 0.04 | 91 | 1013.7 |
| 20260505122239 | 52 | 138 | 0.9 | 3.5 | 0.00 | 0.29 | 0.04 | 91 | 1013.7 |
| 20260505122214 | 52 | 134 | 0.9 | 3.5 | 0.00 | 0.29 | 0.04 | 91 | 1013.7 |
| 20260505122130 | 52 | 141 | 0.9 | 3.5 | 0.00 | 0.29 | 0.04 | 91 | 1013.7 |
| 20260505122120 | 52 | 138 | 0.9 | 3.5 | 0.00 | 0.29 | 0.04 | 91 | 1013.7 |
| 20260505121914 | 52 | 147 | 0.9 | 3.5 | 0.00 | 0.29 | 0.04 | 91 | 1013.7 |
| 20260505121811 | 52 | 142 | 0.9 | 3.5 | 0.00 | 0.29 | 0.04 | 91 | 1013.7 |
| 20260505121709 | 52 | 91 | 1.7 | 3.5 | 0.00 | 0.29 | 0.04 | 91 | 1013.7 |
| 20260505121610 | 52 | 147 | 1.7 | 4.3 | 0.00 | 0.29 | 0.04 | 91 | 1013.7 |
| 20260505121509 | 52 | 113 | 1.7 | 4.3 | 0.00 | 0.29 | 0.04 | 91 | 1013.7 |
| 20260505121402 | 52 | 122 | 1.7 | 4.3 | 0.00 | 0.29 | 0.04 | 91 | 1013.7 |
| 20260505121301 | 52 | 132 | 1.7 | 4.3 | 0.00 | 0.29 | 0.04 | 91 | 1013.8 |
| 20260505121201 | 52 | 141 | 0.9 | 4.3 | 0.00 | 0.29 | 0.04 | 91 | 1013.7 |
| 20260505121102 | 52 | 144 | 0.9 | 4.3 | 0.00 | 0.29 | 0.04 | 91 | 1013.7 |
| 20260505121003 | 52 | 144 | 0.9 | 4.3 | 0.00 | 0.29 | 0.04 | 91 | 1013.7 |
| 20260505120855 | 52 | 142 | 0.9 | 4.3 | 0.00 | 0.29 | 0.04 | 91 | 1013.7 |
| 20260505120755 | 52 | 132 | 0.9 | 4.3 | 0.00 | 0.29 | 0.04 | 91 | 1013.8 |
| 20260505120655 | 52 | 135 | 0.9 | 4.3 | 0.00 | 0.29 | 0.04 | 91 | 1013.8 |
| 20260505120555 | 52 | 136 | 0.9 | 4.3 | 0.00 | 0.29 | 0.04 | 91 | 1013.9 |
| 20260505120458 | 52 | 101 | 0.0 | 2.6 | 0.00 | 0.29 | 0.04 | 91 | 1013.8 |
| 20260505120351 | 52 | 134 | 0.0 | 2.6 | 0.00 | 0.29 | 0.04 | 91 | 1013.8 |
| 20260505120249 | 52 | 203 | 0.0 | 2.6 | 0.00 | 0.29 | 0.04 | 91 | 1013.9 |
| 20260505120150 | 52 | 203 | 0.9 | 2.6 | 0.00 | 0.29 | 0.04 | 91 | 1013.9 |
| 20260505120049 | 52 | 124 | 0.9 | 1.7 | 0.00 | 0.29 | 0.04 | 91 | 1013.9 |
| 20260505115951 | 52 | 125 | 0.9 | 1.7 | 0.00 | 0.29 | 0.04 | 91 | 1013.8 |
| 20260505115843 | 52 | 125 | 0.9 | 1.7 | 0.00 | 0.29 | 0.04 | 91 | 1013.8 |
| 20260505115743 | 52 | 125 | 0.9 | 1.7 | 0.00 | 0.29 | 0.04 | 91 | 1013.9 |
| 20260505115644 | 52 | 147 | 0.9 | 2.6 | 0.00 | 0.29 | 0.04 | 91 | 1013.9 |
| 20260505115544 | 52 | 141 | 0.9 | 2.6 | 0.00 | 0.29 | 0.04 | 91 | 1013.9 |
| 20260505115445 | 52 | 141 | 0.9 | 2.6 | 0.00 | 0.29 | 0.04 | 91 | 1013.9 |
| 20260505115338 | 52 | 141 | 0.9 | 2.6 | 0.00 | 0.29 | 0.04 | 91 | 1013.9 |
| 20260505115237 | 52 | 110 | 0.9 | 2.6 | 0.00 | 0.29 | 0.04 | 91 | 1013.8 |
| 20260505115137 | 52 | 162 | 0.9 | 2.6 | 0.00 | 0.29 | 0.04 | 91 | 1013.8 |
| 20260505115037 | 52 | 161 | 0.9 | 2.6 | 0.00 | 0.29 | 0.04 | 91 | 1013.8 |
| 20260505114939 | 52 | 162 | 0.9 | 2.6 | 0.00 | 0.29 | 0.04 | 91 | 1013.8 |
| 20260505114837 | 52 | 164 | 0.9 | 2.6 | 0.00 | 0.29 | 0.04 | 91 | 1013.8 |
| 20260505114735 | 52 | 163 | 0.9 | 4.3 | 0.00 | 0.29 | 0.04 | 91 | 1013.8 |
| 20260505114653 | 52 | 129 | 0.9 | 5.2 | 0.00 | 0.29 | 0.04 | 91 | 1013.8 |
| 20260505114633 | 52 | 141 | 0.9 | 5.2 | 0.00 | 0.29 | 0.04 | 91 | 1013.8 |
| 20260505114548 | 52 | 137 | 0.9 | 5.2 | 0.00 | 0.29 | 0.04 | 91 | 1013.8 |
| 20260505114538 | 52 | 129 | 0.9 | 5.2 | 0.00 | 0.29 | 0.04 | 91 | 1013.8 |
| 20260505114328 | 52 | 200 | 0.9 | 5.2 | 0.00 | 0.29 | 0.04 | 91 | 1013.8 |
| 20260505114226 | 52 | 198 | 0.9 | 5.2 | 0.00 | 0.29 | 0.04 | 91 | 1013.8 |
| 20260505114125 | 52 | 151 | 0.9 | 5.2 | 0.00 | 0.29 | 0.04 | 91 | 1013.8 |
| 20260505114025 | 52 | 132 | 0.9 | 5.2 | 0.00 | 0.29 | 0.04 | 91 | 1013.8 |
| 20260505113929 | 52 | 129 | 0.9 | 5.2 | 0.00 | 0.29 | 0.04 | 91 | 1013.9 |
| 20260505113819 | 52 | 149 | 0.9 | 5.2 | 0.00 | 0.29 | 0.04 | 91 | 1013.9 |
| 20260505113720 | 52 | 146 | 0.9 | 5.2 | 0.00 | 0.29 | 0.04 | 91 | 1013.9 |
| 20260505113619 | 52 | 214 | 0.9 | 1.7 | 0.00 | 0.29 | 0.04 | 91 | 1013.9 |
| 20260505113520 | 52 | 191 | 0.9 | 3.5 | 0.00 | 0.29 | 0.04 | 91 | 1013.9 |
| 20260505113422 | 52 | 131 | 0.9 | 3.5 | 0.00 | 0.29 | 0.04 | 91 | 1013.9 |
| 20260505113320 | 52 | 211 | 0.9 | 3.5 | 0.00 | 0.29 | 0.04 | 91 | 1013.9 |
| 20260505113217 | 52 | 119 | 0.9 | 3.5 | 0.00 | 0.29 | 0.04 | 91 | 1013.9 |
| 20260505113134 | 52 | 118 | 0.9 | 3.5 | 0.00 | 0.29 | 0.04 | 91 | 1014.0 |
| 20260505113117 | 52 | 117 | 0.9 | 3.5 | 0.00 | 0.29 | 0.04 | 91 | 1014.0 |
| 20260505113029 | 52 | 119 | 0.9 | 3.5 | 0.00 | 0.29 | 0.04 | 91 | 1014.0 |
| 20260505113019 | 52 | 118 | 0.9 | 3.5 | 0.00 | 0.29 | 0.04 | 91 | 1014.0 |
| 20260505112813 | 52 | 119 | 0.9 | 3.5 | 0.00 | 0.29 | 0.04 | 91 | 1014.0 |
| 20260505112712 | 52 | 124 | 0.9 | 3.5 | 0.00 | 0.29 | 0.04 | 91 | 1013.9 |
| 20260505112612 | 52 | 132 | 0.9 | 3.5 | 0.00 | 0.29 | 0.04 | 91 | 1013.9 |
| 20260505112510 | 52 | 135 | 0.9 | 3.5 | 0.00 | 0.29 | 0.04 | 91 | 1013.9 |
| 20260505112410 | 52 | 133 | 0.9 | 3.5 | 0.00 | 0.29 | 0.04 | 91 | 1013.8 |
| 20260505112305 | 52 | 200 | 0.9 | 3.5 | 0.00 | 0.29 | 0.04 | 91 | 1013.8 |
| 20260505112203 | 52 | 200 | 0.9 | 3.5 | 0.00 | 0.29 | 0.04 | 91 | 1013.7 |
| 20260505112104 | 52 | 229 | 0.9 | 3.5 | 0.00 | 0.29 | 0.04 | 91 | 1013.7 |
| 20260505112003 | 52 | 231 | 0.9 | 3.5 | 0.00 | 0.29 | 0.04 | 91 | 1013.7 |
| 20260505111902 | 52 | 147 | 0.9 | 3.5 | 0.00 | 0.29 | 0.04 | 91 | 1013.7 |
| 20260505111801 | 52 | 205 | 0.9 | 3.5 | 0.00 | 0.29 | 0.04 | 91 | 1013.7 |
| 20260505111619 | 52 | 138 | 0.9 | 2.6 | 0.00 | 0.29 | 0.04 | 91 | 1013.7 |
| 20260505111559 | 52 | 200 | 0.9 | 3.5 | 0.00 | 0.29 | 0.04 | 91 | 1013.7 |
| 20260505111512 | 52 | 205 | 0.0 | 2.6 | 0.00 | 0.29 | 0.04 | 91 | 1013.7 |
| 20260505111501 | 52 | 138 | 0.9 | 2.6 | 0.00 | 0.29 | 0.04 | 91 | 1013.7 |
| 20260505111250 | 52 | 138 | 0.9 | 2.6 | 0.00 | 0.29 | 0.04 | 91 | 1013.7 |
| 20260505111149 | 52 | 138 | 0.9 | 2.6 | 0.00 | 0.29 | 0.04 | 91 | 1013.8 |
| 20260505111049 | 52 | 138 | 0.9 | 2.6 | 0.00 | 0.29 | 0.04 | 91 | 1013.8 |
| 20260505110949 | 52 | 134 | 0.9 | 2.6 | 0.00 | 0.29 | 0.04 | 91 | 1013.8 |
| 20260505110851 | 52 | 95 | 0.9 | 2.6 | 0.00 | 0.29 | 0.04 | 91 | 1013.8 |
| 20260505110744 | 52 | 147 | 1.7 | 3.5 | 0.00 | 0.29 | 0.04 | 91 | 1013.8 |
| 20260505110643 | 52 | 160 | 1.7 | 3.5 | 0.00 | 0.29 | 0.04 | 91 | 1013.9 |
| 20260505110543 | 52 | 203 | 0.9 | 3.5 | 0.00 | 0.29 | 0.04 | 91 | 1013.9 |
| 20260505110443 | 52 | 210 | 0.9 | 3.5 | 0.00 | 0.29 | 0.04 | 91 | 1013.9 |
| 20260505110345 | 52 | 83 | 0.9 | 3.5 | 0.00 | 0.29 | 0.04 | 91 | 1013.9 |
| 20260505110242 | 52 | 132 | 0.9 | 3.5 | 0.00 | 0.29 | 0.04 | 91 | 1013.9 |
| 20260505110141 | 52 | 129 | 0.9 | 3.5 | 0.00 | 0.29 | 0.04 | 91 | 1013.8 |
| 20260505102149 | 52 | 141 | 0.9 | 3.5 | 0.00 | 0.29 | 0.04 | 91 | 1014.0 |
| 20260505102049 | 52 | 122 | 0.9 | 3.5 | 0.00 | 0.29 | 0.04 | 91 | 1014.0 |
| 20260505101950 | 52 | 148 | 0.9 | 3.5 | 0.00 | 0.29 | 0.04 | 91 | 1014.0 |
| 20260505101849 | 52 | 114 | 0.9 | 3.5 | 0.00 | 0.29 | 0.04 | 91 | 1014.0 |
| 20260505101753 | 52 | 129 | 1.7 | 3.5 | 0.00 | 0.29 | 0.04 | 91 | 1014.0 |
| 20260505101643 | 52 | 152 | 1.7 | 3.5 | 0.00 | 0.29 | 0.04 | 91 | 1014.0 |
| 20260505101544 | 52 | 133 | 1.7 | 3.5 | 0.00 | 0.29 | 0.04 | 91 | 1013.9 |
| 20260505101444 | 52 | 130 | 1.7 | 3.5 | 0.00 | 0.29 | 0.04 | 91 | 1013.9 |
| 20260505101343 | 52 | 145 | 0.9 | 3.5 | 0.00 | 0.29 | 0.04 | 91 | 1013.9 |
| 20260505101246 | 52 | 129 | 0.9 | 3.5 | 0.00 | 0.29 | 0.04 | 91 | 1013.9 |
| 20260505101139 | 52 | 152 | 0.9 | 3.5 | 0.00 | 0.29 | 0.04 | 91 | 1014.0 |
| 20260505101038 | 52 | 145 | 0.9 | 3.5 | 0.00 | 0.29 | 0.04 | 91 | 1014.0 |
| 20260505100939 | 52 | 141 | 0.9 | 3.5 | 0.00 | 0.29 | 0.04 | 91 | 1014.0 |
| 20260505100837 | 52 | 110 | 0.9 | 3.5 | 0.00 | 0.29 | 0.04 | 91 | 1014.1 |
| 20260505100740 | 52 | 138 | 0.9 | 3.5 | 0.00 | 0.29 | 0.04 | 91 | 1014.1 |
| 20260505100631 | 52 | 138 | 0.9 | 3.5 | 0.00 | 0.29 | 0.04 | 91 | 1014.1 |
| 20260505100532 | 52 | 136 | 0.9 | 3.5 | 0.00 | 0.29 | 0.04 | 91 | 1014.1 |
| 20260505100432 | 52 | 139 | 0.9 | 2.6 | 0.00 | 0.29 | 0.04 | 91 | 1014.1 |
| 20260505100331 | 52 | 143 | 0.9 | 2.6 | 0.00 | 0.29 | 0.04 | 91 | 1014.1 |
| 20260505100234 | 52 | 143 | 0.9 | 2.6 | 0.00 | 0.29 | 0.04 | 91 | 1014.1 |
| 20260505100130 | 52 | 129 | 0.9 | 2.6 | 0.00 | 0.29 | 0.04 | 91 | 1014.1 |
| 20260505100029 | 52 | 141 | 0.9 | 2.6 | 0.00 | 0.29 | 0.04 | 91 | 1014.1 |
| 20260505095929 | 52 | 132 | 0.9 | 2.6 | 0.00 | 0.29 | 0.04 | 91 | 1014.1 |
| 20260505095827 | 52 | 133 | 0.9 | 2.6 | 0.00 | 0.29 | 0.04 | 91 | 1014.1 |
| 20260505095728 | 52 | 132 | 0.9 | 2.6 | 0.00 | 0.29 | 0.04 | 91 | 1014.1 |
| 20260505095619 | 52 | 134 | 0.9 | 1.7 | 0.00 | 0.29 | 0.04 | 91 | 1014.2 |
| 20260505095519 | 52 | 134 | 0.9 | 1.7 | 0.00 | 0.29 | 0.04 | 91 | 1014.1 |
| 20260505095419 | 52 | 136 | 0.9 | 1.7 | 0.00 | 0.29 | 0.04 | 91 | 1014.1 |
| 20260505095319 | 52 | 135 | 0.9 | 1.7 | 0.00 | 0.29 | 0.04 | 91 | 1014.1 |
| 20260505095223 | 52 | 136 | 0.9 | 1.7 | 0.00 | 0.29 | 0.04 | 91 | 1014.1 |
| 20260505095118 | 52 | 147 | 0.9 | 1.7 | 0.00 | 0.29 | 0.04 | 91 | 1014.1 |
| 20260505095017 | 52 | 136 | 0.9 | 2.6 | 0.00 | 0.29 | 0.04 | 91 | 1014.1 |
| 20260505094934 | 52 | 118 | 0.9 | 2.6 | 0.00 | 0.29 | 0.04 | 91 | 1014.1 |
| 20260505094917 | 52 | 134 | 0.9 | 2.6 | 0.00 | 0.29 | 0.04 | 91 | 1014.1 |
| 20260505094830 | 52 | 133 | 0.9 | 2.6 | 0.00 | 0.29 | 0.04 | 91 | 1014.1 |
| 20260505094820 | 52 | 118 | 0.9 | 2.6 | 0.00 | 0.29 | 0.04 | 91 | 1014.1 |
| 20260505094611 | 52 | 133 | 0.9 | 2.6 | 0.00 | 0.29 | 0.04 | 91 | 1014.1 |
| 20260505094511 | 52 | 134 | 0.9 | 2.6 | 0.00 | 0.29 | 0.04 | 91 | 1014.1 |
| 20260505094411 | 52 | 134 | 0.9 | 2.6 | 0.00 | 0.29 | 0.04 | 91 | 1014.1 |
| 20260505094309 | 52 | 134 | 0.9 | 3.5 | 0.00 | 0.29 | 0.04 | 91 | 1014.1 |
| 20260505094210 | 52 | 134 | 0.9 | 3.5 | 0.00 | 0.29 | 0.04 | 91 | 1014.0 |
| 20260505094102 | 52 | 138 | 0.9 | 3.5 | 0.00 | 0.29 | 0.04 | 91 | 1014.0 |
| 20260505094001 | 52 | 139 | 0.9 | 3.5 | 0.00 | 0.29 | 0.04 | 91 | 1014.0 |
| 20260505093901 | 52 | 131 | 0.9 | 3.5 | 0.00 | 0.29 | 0.04 | 91 | 1013.9 |
| 20260505093802 | 51 | 131 | 0.9 | 3.5 | 0.00 | 0.29 | 0.04 | 91 | 1013.9 |
| 20260505093702 | 51 | 131 | 0.9 | 3.5 | 0.00 | 0.29 | 0.04 | 91 | 1014.0 |
| 20260505093556 | 51 | 131 | 0.9 | 3.5 | 0.00 | 0.29 | 0.04 | 91 | 1014.0 |
| 20260505093455 | 51 | 129 | 0.9 | 3.5 | 0.00 | 0.29 | 0.04 | 91 | 1014.0 |
| 20260505093427 | 51 | 135 | 0.9 | 2.6 | 0.00 | 0.29 | 0.04 | 91 | 1014.1 |
| 20260505093357 | 51 | 134 | 0.9 | 3.5 | 0.00 | 0.29 | 0.04 | 91 | 1014.1 |
| 20260505093314 | 51 | 141 | 0.9 | 2.6 | 0.00 | 0.29 | 0.04 | 91 | 1014.1 |
| 20260505093304 | 51 | 135 | 0.9 | 2.6 | 0.00 | 0.29 | 0.04 | 91 | 1014.1 |
| 20260505093056 | 51 | 152 | 0.9 | 2.6 | 0.00 | 0.29 | 0.04 | 91 | 1014.1 |
| 20260505092953 | 51 | 134 | 0.9 | 2.6 | 0.00 | 0.29 | 0.04 | 91 | 1014.1 |
| 20260505092853 | 51 | 131 | 0.9 | 2.6 | 0.00 | 0.29 | 0.04 | 91 | 1014.2 |
| 20260505092752 | 51 | 139 | 0.9 | 2.6 | 0.00 | 0.29 | 0.04 | 91 | 1014.1 |
| 20260505092652 | 51 | 134 | 0.9 | 2.6 | 0.00 | 0.29 | 0.04 | 91 | 1014.2 |
| 20260505092546 | 51 | 149 | 0.9 | 2.6 | 0.00 | 0.29 | 0.04 | 91 | 1014.2 |
| 20260505092446 | 51 | 121 | 0.9 | 2.6 | 0.00 | 0.29 | 0.04 | 91 | 1014.2 |
| 20260505092346 | 51 | 133 | 0.9 | 2.6 | 0.00 | 0.29 | 0.04 | 91 | 1014.2 |
| 20260505092245 | 51 | 139 | 0.9 | 2.6 | 0.00 | 0.29 | 0.04 | 91 | 1014.3 |
| 20260505092145 | 51 | 133 | 0.9 | 2.6 | 0.00 | 0.29 | 0.04 | 91 | 1014.3 |
| 20260505092037 | 51 | 136 | 0.9 | 2.6 | 0.00 | 0.29 | 0.04 | 91 | 1014.2 |
| 20260505091937 | 51 | 135 | 0.9 | 2.6 | 0.00 | 0.29 | 0.04 | 91 | 1014.2 |
| 20260505091838 | 51 | 139 | 0.9 | 2.6 | 0.00 | 0.29 | 0.04 | 91 | 1014.2 |
| 20260505091737 | 51 | 146 | 0.9 | 2.6 | 0.00 | 0.29 | 0.04 | 91 | 1014.3 |
| 20260505091639 | 51 | 214 | 0.9 | 2.6 | 0.00 | 0.29 | 0.04 | 91 | 1014.3 |
| 20260505091537 | 51 | 205 | 0.9 | 3.5 | 0.00 | 0.29 | 0.04 | 91 | 1014.2 |
| 20260505091435 | 51 | 213 | 0.9 | 3.5 | 0.00 | 0.29 | 0.04 | 91 | 1014.3 |
| 20260505091354 | 51 | 154 | 0.9 | 3.5 | 0.00 | 0.29 | 0.04 | 91 | 1014.4 |
| 20260505091334 | 51 | 167 | 0.9 | 3.5 | 0.00 | 0.29 | 0.04 | 91 | 1014.3 |
| 20260505091247 | 51 | 148 | 0.9 | 3.5 | 0.00 | 0.29 | 0.04 | 91 | 1014.4 |
| 20260505091237 | 51 | 154 | 0.9 | 3.5 | 0.00 | 0.29 | 0.04 | 91 | 1014.4 |
| 20260505091029 | 51 | 113 | 0.9 | 3.5 | 0.00 | 0.29 | 0.04 | 91 | 1014.4 |
| 20260505090929 | 51 | 125 | 1.7 | 3.5 | 0.00 | 0.29 | 0.04 | 91 | 1014.4 |
| 20260505090829 | 51 | 136 | 1.7 | 3.5 | 0.00 | 0.29 | 0.04 | 91 | 1014.4 |
| 20260505090727 | 51 | 131 | 0.9 | 3.5 | 0.00 | 0.29 | 0.04 | 91 | 1014.4 |
| 20260505090627 | 51 | 136 | 0.9 | 3.5 | 0.00 | 0.29 | 0.04 | 91 | 1014.4 |
| 20260505090524 | 51 | 131 | 0.9 | 2.6 | 0.00 | 0.29 | 0.04 | 91 | 1014.4 |
| 20260505090423 | 51 | 143 | 0.9 | 2.6 | 0.00 | 0.29 | 0.04 | 91 | 1014.4 |
| 20260505090326 | 51 | 148 | 0.9 | 2.6 | 0.00 | 0.29 | 0.04 | 91 | 1014.4 |
| 20260505090221 | 51 | 148 | 0.9 | 2.6 | 0.00 | 0.29 | 0.04 | 91 | 1014.4 |
| 20260505090120 | 51 | 132 | 0.9 | 2.6 | 0.00 | 0.29 | 0.04 | 91 | 1014.4 |
| 20260505090016 | 51 | 146 | 0.9 | 2.6 | 0.00 | 0.29 | 0.04 | 91 | 1014.4 |
| 20260505085914 | 51 | 136 | 0.9 | 2.6 | 0.00 | 0.29 | 0.04 | 91 | 1014.4 |
| 20260505085813 | 51 | 142 | 0.9 | 2.6 | 0.00 | 0.29 | 0.04 | 91 | 1014.4 |
| 20260505085714 | 51 | 143 | 0.9 | 2.6 | 0.00 | 0.29 | 0.04 | 91 | 1014.4 |
| 20260505085615 | 51 | 142 | 0.9 | 2.6 | 0.00 | 0.29 | 0.04 | 91 | 1014.4 |
| 20260505085511 | 51 | 143 | 0.9 | 2.6 | 0.00 | 0.29 | 0.04 | 91 | 1014.4 |
| 20260505085411 | 51 | 122 | 0.9 | 2.6 | 0.01 | 0.29 | 0.04 | 91 | 1014.4 |
| 20260505085310 | 52 | 120 | 0.9 | 3.5 | 0.01 | 0.29 | 0.04 | 91 | 1014.4 |
| 20260505085210 | 52 | 197 | 0.9 | 4.3 | 0.01 | 0.29 | 0.04 | 91 | 1014.5 |
| 20260505085109 | 52 | 155 | 0.9 | 4.3 | 0.01 | 0.29 | 0.04 | 91 | 1014.5 |
| 20260505085003 | 52 | 143 | 1.7 | 4.3 | 0.01 | 0.29 | 0.04 | 91 | 1014.6 |
| 20260505084903 | 52 | 129 | 1.7 | 4.3 | 0.01 | 0.29 | 0.04 | 91 | 1014.5 |
| 20260505084804 | 52 | 128 | 1.7 | 4.3 | 0.01 | 0.29 | 0.04 | 91 | 1014.5 |
| 20260505084704 | 52 | 144 | 1.7 | 4.3 | 0.01 | 0.29 | 0.04 | 91 | 1014.5 |
| 20260505084602 | 52 | 131 | 1.7 | 4.3 | 0.01 | 0.29 | 0.04 | 91 | 1014.5 |
| 20260505084455 | 52 | 153 | 1.7 | 4.3 | 0.01 | 0.29 | 0.04 | 91 | 1014.6 |
| 20260505084355 | 52 | 128 | 1.7 | 4.3 | 0.02 | 0.29 | 0.04 | 91 | 1014.5 |
| 20260505084255 | 52 | 145 | 1.7 | 4.3 | 0.02 | 0.29 | 0.04 | 91 | 1014.6 |
| 20260505084156 | 52 | 166 | 1.7 | 4.3 | 0.02 | 0.29 | 0.04 | 91 | 1014.6 |
| 20260505084057 | 52 | 151 | 1.7 | 4.3 | 0.02 | 0.29 | 0.04 | 91 | 1014.6 |
| 20260505083949 | 52 | 136 | 0.9 | 4.3 | 0.02 | 0.29 | 0.04 | 91 | 1014.6 |
| 20260505083850 | 52 | 129 | 0.9 | 3.5 | 0.02 | 0.29 | 0.04 | 91 | 1014.6 |
| 20260505083750 | 52 | 139 | 0.9 | 3.5 | 0.02 | 0.29 | 0.04 | 91 | 1014.6 |
| 20260505083649 | 52 | 134 | 0.9 | 3.5 | 0.02 | 0.29 | 0.04 | 91 | 1014.6 |
| 20260505083550 | 52 | 150 | 0.9 | 3.5 | 0.02 | 0.29 | 0.04 | 91 | 1014.6 |
| 20260505083443 | 52 | 148 | 0.9 | 3.5 | 0.02 | 0.29 | 0.04 | 91 | 1014.6 |
| 20260505083343 | 52 | 139 | 0.9 | 3.5 | 0.02 | 0.29 | 0.04 | 91 | 1014.6 |
| 20260505083243 | 52 | 141 | 0.9 | 3.5 | 0.02 | 0.29 | 0.04 | 91 | 1014.6 |
| 20260505083144 | 52 | 145 | 0.9 | 3.5 | 0.02 | 0.29 | 0.04 | 91 | 1014.6 |
| 20260505083045 | 52 | 146 | 0.9 | 3.5 | 0.02 | 0.29 | 0.04 | 91 | 1014.5 |
| 20260505082940 | 52 | 145 | 0.9 | 3.5 | 0.02 | 0.29 | 0.04 | 91 | 1014.5 |
| 20260505082838 | 52 | 141 | 0.9 | 3.5 | 0.02 | 0.29 | 0.04 | 91 | 1014.5 |
| 20260505082737 | 52 | 195 | 0.9 | 3.5 | 0.02 | 0.29 | 0.04 | 91 | 1014.6 |
| 20260505082638 | 52 | 119 | 0.9 | 3.5 | 0.02 | 0.29 | 0.04 | 91 | 1014.6 |
| 20260505082538 | 52 | 114 | 0.9 | 3.5 | 0.02 | 0.29 | 0.04 | 91 | 1014.6 |